DL9MFL-6 Weather Reports


Display with metric or nautical units.
time (UTC)temp
F
wind
direction
speed
MPH
gust
MPH
rain 1hr
in
rain 24hr
in
rain mn
in
humidity
%
barometer
mb
20260906082402 61 111 2.0 9.0 0.00 0.06 0.00 73 1025.6
20260906082305 61 67 2.0 6.0 0.00 0.06 0.00 72 1025.6
20260906082255 61 83 2.0 6.0 0.00 0.06 0.00 72 1025.6
20260906082201 61 130 2.0 6.0 0.00 0.06 0.00 73 1025.5
20260906082101 61 99 2.0 6.0 0.00 0.06 0.00 74 1025.5
20260906082001 61 80 2.0 6.0 0.00 0.07 0.00 74 1025.6
20260906081902 61 77 2.0 6.0 0.00 0.07 0.00 73 1025.5
20260906081801 61 74 2.0 6.0 0.00 0.08 0.00 74 1025.5
20260906081756 61 61 2.0 6.0 0.00 0.08 0.00 74 1025.5
20260906081701 61 98 2.0 7.0 0.00 0.09 0.00 74 1025.5
20260906081601 61 144 2.0 7.0 0.00 0.09 0.00 75 1025.6
20260906081501 61 112 2.0 7.0 0.00 0.09 0.00 74 1025.6
20260906081401 60 84 2.0 7.0 0.00 0.10 0.00 76 1025.5
20260906081301 60 126 2.0 7.0 0.00 0.11 0.00 73 1025.5
20260906081254 60 126 2.0 7.0 0.00 0.11 0.00 73 1025.5
20260906081202 60 68 2.0 7.0 0.00 0.12 0.00 74 1025.5
20260906081101 60 102 2.0 7.0 0.00 0.12 0.00 74 1025.5
20260906081001 60 96 2.0 7.0 0.00 0.13 0.00 75 1025.4
20260906080901 60 101 2.0 7.0 0.00 0.13 0.00 75 1025.4
20260906080801 60 86 2.0 7.0 0.00 0.13 0.00 75 1025.4
20260906080752 60 86 2.0 7.0 0.00 0.13 0.00 75 1025.4
20260906080701 60 94 2.0 7.0 0.00 0.13 0.00 76 1025.4
20260906080600 60 127 2.0 7.0 0.00 0.13 0.00 75 1025.4
20260906080500 60 85 2.0 7.0 0.00 0.13 0.00 74 1025.4
20260906080401 60 108 3.0 8.0 0.00 0.13 0.00 75 1025.4
20260906080300 60 103 3.0 8.0 0.00 0.13 0.00 75 1025.4
20260906080251 60 103 3.0 8.0 0.00 0.13 0.00 75 1025.4
20260906080200 60 127 3.0 8.0 0.00 0.13 0.00 75 1025.4
20260906080001 60 98 2.0 8.0 0.00 0.13 0.00 74 1025.3
20260906075901 60 121 2.0 8.0 0.00 0.13 0.00 74 1025.3
20260906075801 59 100 2.0 8.0 0.00 0.13 0.00 74 1025.3
20260906075746 59 123 2.0 8.0 0.00 0.13 0.00 74 1025.3
20260906075700 59 92 2.0 8.0 0.00 0.13 0.00 75 1025.3
20260906075601 59 104 2.0 8.0 0.00 0.13 0.00 75 1025.4
20260906075500 59 70 1.0 8.0 0.00 0.13 0.00 76 1025.3
20260906075402 59 84 1.0 6.0 0.00 0.13 0.00 76 1025.3
20260906075305 59 110 1.0 6.0 0.00 0.13 0.00 77 1025.3
20260906075242 59 111 1.0 6.0 0.00 0.13 0.00 77 1025.3
20260906075202 59 113 1.0 6.0 0.00 0.13 0.00 78 1025.3
20260906075101 58 97 1.0 4.0 0.00 0.13 0.00 80 1025.4
20260906075001 58 109 1.0 4.0 0.00 0.13 0.00 81 1025.4
20260906074902 58 108 1.0 4.0 0.00 0.13 0.00 81 1025.4
20260906074801 58 109 1.0 4.0 0.00 0.13 0.00 81 1025.4
20260906074742 58 98 1.0 4.0 0.00 0.13 0.00 81 1025.4
20260906074701 58 106 1.0 4.0 0.00 0.13 0.00 81 1025.4
20260906074602 58 108 1.0 4.0 0.00 0.13 0.00 81 1025.4
20260906074501 58 84 1.0 4.0 0.00 0.13 0.00 82 1025.4
20260906074401 58 83 1.0 4.0 0.00 0.13 0.00 82 1025.4
20260906074300 57 86 2.0 4.0 0.00 0.13 0.00 82 1025.4
20260906074240 57 102 2.0 4.0 0.00 0.13 0.00 82 1025.4
20260906074200 57 101 2.0 7.0 0.00 0.13 0.00 82 1025.4
20260906074100 57 101 2.0 7.0 0.00 0.13 0.00 84 1025.3
20260906074010 57 87 2.0 7.0 0.00 0.13 0.00 84 1025.4
20260906074003 57 113 2.0 7.0 0.00 0.13 0.00 84 1025.4
20260906073955 57 89 2.0 7.0 0.00 0.13 0.00 83 1025.4
20260906073951 57 88 2.0 7.0 0.00 0.13 0.00 84 1025.4
20260906073655 57 89 2.0 7.0 0.00 0.13 0.00 84 1025.4
20260906073555 57 111 2.0 7.0 0.00 0.13 0.00 85 1025.4
20260906073508 57 97 1.0 7.0 0.00 0.13 0.00 85 1025.4
20260906073501 57 109 2.0 7.0 0.00 0.13 0.00 85 1025.4
20260906073453 57 106 2.0 7.0 0.00 0.13 0.00 86 1025.4
20260906073449 57 113 1.0 7.0 0.00 0.13 0.00 85 1025.4
20260906073154 56 106 1.0 6.0 0.00 0.13 0.00 85 1025.4
20260906073054 56 88 1.0 4.0 0.00 0.13 0.00 87 1025.4
20260906072953 56 86 1.0 4.0 0.00 0.13 0.00 87 1025.4
20260906072854 56 76 1.0 4.0 0.00 0.13 0.00 87 1025.4
20260906072754 56 108 1.0 4.0 0.00 0.13 0.00 87 1025.4
20260906072738 56 90 1.0 4.0 0.00 0.13 0.00 87 1025.4
20260906072653 56 90 1.0 4.0 0.00 0.13 0.00 89 1025.4
20260906072554 56 80 1.0 4.0 0.00 0.13 0.00 90 1025.4
20260906072453 56 82 1.0 4.0 0.00 0.13 0.00 93 1025.4
20260906072353 56 88 1.0 4.0 0.00 0.13 0.00 93 1025.4
20260906072254 56 115 1.0 4.0 0.00 0.13 0.00 94 1025.4
20260906072238 56 124 1.0 4.0 0.00 0.13 0.00 94 1025.4
20260906072154 56 123 1.0 4.0 0.00 0.13 0.00 94 1025.4
20260906072050 56 134 1.0 4.0 0.00 0.13 0.00 94 1025.4
20260906071949 56 134 1.0 4.0 0.00 0.13 0.00 94 1025.4
20260906071850 56 134 1.0 4.0 0.00 0.13 0.00 94 1025.4
20260906071737 56 134 1.0 4.0 0.00 0.13 0.00 95 1025.4
20260906071645 56 134 1.0 4.0 0.00 0.13 0.00 95 1025.5
20260906071542 56 132 1.0 3.0 0.00 0.13 0.00 96 1025.5
20260906071506 56 126 1.0 4.0 0.00 0.13 0.00 96 1025.6
20260906071501 56 128 1.0 3.0 0.00 0.13 0.00 96 1025.5
20260906071453 56 127 1.0 4.0 0.00 0.13 0.00 96 1025.5
20260906071449 56 127 1.0 4.0 0.00 0.13 0.00 96 1025.6
20260906071141 55 127 1.0 4.0 0.00 0.13 0.00 96 1025.5
20260906071041 55 127 1.0 4.0 0.00 0.13 0.00 96 1025.5
20260906070941 55 126 1.0 4.0 0.00 0.13 0.00 96 1025.5
20260906070841 55 126 2.0 5.0 0.00 0.13 0.00 96 1025.5
20260906070738 55 122 2.0 5.0 0.00 0.13 0.00 96 1025.4
20260906070640 55 122 2.0 5.0 0.00 0.13 0.00 96 1025.5
20260906070540 55 122 2.0 5.0 0.00 0.13 0.00 96 1025.4
20260906070439 55 123 2.0 5.0 0.00 0.13 0.00 96 1025.4
20260906070336 55 127 2.0 5.0 0.00 0.13 0.00 96 1025.4
20260906070236 55 127 2.0 5.0 0.00 0.13 0.00 96 1025.4
20260906070135 55 130 3.0 5.0 0.00 0.13 0.00 96 1025.4
20260906070035 55 130 3.0 5.0 0.00 0.13 0.00 96 1025.4
20260906065935 55 130 3.0 5.0 0.00 0.13 0.00 96 1025.4
20260906065836 55 142 3.0 5.0 0.00 0.13 0.00 96 1025.4
20260906065736 55 136 2.0 5.0 0.00 0.13 0.00 96 1025.4
20260906065636 55 136 2.0 5.0 0.00 0.13 0.00 96 1025.4
20260906065533 55 140 2.0 5.0 0.00 0.13 0.00 96 1025.4
20260906065434 54 139 2.0 5.0 0.00 0.13 0.00 96 1025.3
20260906065333 54 138 2.0 5.0 0.00 0.13 0.00 96 1025.4
20260906065233 54 146 2.0 5.0 0.00 0.13 0.00 96 1025.3
20260906065130 54 141 2.0 5.0 0.00 0.13 0.00 96 1025.3
20260906065030 54 138 2.0 4.0 0.00 0.13 0.00 96 1025.3
20260906064930 54 140 2.0 4.0 0.00 0.13 0.00 96 1025.3
20260906064830 53 139 2.0 4.0 0.00 0.13 0.00 96 1025.3
20260906064730 53 139 2.0 4.0 0.00 0.13 0.00 96 1025.3
20260906064629 53 139 2.0 4.0 0.00 0.13 0.00 96 1025.3
20260906064529 53 139 2.0 4.0 0.00 0.13 0.00 96 1025.3
20260906064453 53 138 2.0 4.0 0.00 0.13 0.00 96 1025.4
20260906064445 53 138 2.0 4.0 0.00 0.13 0.00 96 1025.3
20260906064441 53 136 2.0 4.0 0.00 0.13 0.00 96 1025.3
20260906064129 52 134 2.0 4.0 0.00 0.13 0.00 96 1025.3
20260906064030 52 134 2.0 4.0 0.00 0.13 0.00 96 1025.3
20260906063930 52 135 2.0 4.0 0.00 0.13 0.00 96 1025.3
20260906063829 52 135 2.0 4.0 0.00 0.13 0.00 96 1025.4
20260906063730 52 134 1.0 3.0 0.00 0.13 0.00 96 1025.4
20260906063630 52 134 1.0 3.0 0.00 0.13 0.00 96 1025.3
20260906063530 51 134 1.0 3.0 0.00 0.13 0.00 96 1025.4
20260906063430 51 134 1.0 3.0 0.00 0.13 0.00 95 1025.3
20260906063330 51 134 1.0 3.0 0.00 0.13 0.00 95 1025.3
20260906063229 51 134 1.0 3.0 0.00 0.13 0.00 96 1025.3
20260906063129 51 134 1.0 3.0 0.00 0.13 0.00 96 1025.3
20260906063029 51 134 1.0 3.0 0.00 0.13 0.00 95 1025.3
20260906062929 51 133 1.0 3.0 0.00 0.13 0.00 95 1025.3
20260906062829 51 133 1.0 3.0 0.00 0.13 0.00 95 1025.3
20260906062729 51 133 1.0 3.0 0.00 0.13 0.00 95 1025.2
20260906062629 51 133 1.0 3.0 0.00 0.13 0.00 95 1025.2
20260906062529 51 133 1.0 3.0 0.00 0.13 0.00 95 1025.2
20260906062429 50 133 1.0 3.0 0.00 0.13 0.00 95 1025.3
20260906062329 50 133 1.0 3.0 0.00 0.13 0.00 95 1025.2
20260906062229 50 133 1.0 3.0 0.00 0.13 0.00 95 1025.2
20260906062129 50 132 1.0 2.0 0.00 0.13 0.00 95 1025.3
20260906062029 50 132 1.0 2.0 0.00 0.13 0.00 95 1025.3
20260906061929 50 132 1.0 2.0 0.00 0.13 0.00 95 1025.3
20260906061829 50 132 1.0 2.0 0.00 0.13 0.00 95 1025.2
20260906061729 50 132 1.0 3.0 0.00 0.13 0.00 95 1025.2
20260906061629 50 132 1.0 3.0 0.00 0.13 0.00 95 1025.3
20260906061528 50 132 1.0 3.0 0.00 0.13 0.00 95 1025.2
20260906061429 50 132 1.0 3.0 0.00 0.13 0.00 95 1025.2
20260906061329 50 132 1.0 3.0 0.00 0.13 0.00 95 1025.2
20260906061228 50 132 1.0 3.0 0.00 0.13 0.00 95 1025.2
20260906061129 50 132 1.0 3.0 0.00 0.13 0.00 95 1025.2
20260906061029 50 132 1.0 3.0 0.00 0.13 0.00 95 1025.2
20260906060929 50 132 1.0 3.0 0.00 0.13 0.00 95 1025.2
20260906060829 49 131 1.0 3.0 0.00 0.13 0.00 95 1025.2
20260906060733 49 131 1.0 3.0 0.00 0.13 0.00 95 1025.2
20260906060729 49 131 1.0 3.0 0.00 0.13 0.00 95 1025.0
20260906060626 49 131 1.0 3.0 0.00 0.13 0.00 95 1025.0
20260906060526 49 131 1.0 3.0 0.00 0.13 0.00 95 1025.0
20260906060426 49 131 1.0 3.0 0.00 0.13 0.00 95 1025.0
20260906060326 49 131 1.0 3.0 0.00 0.13 0.00 95 1025.0
20260906060226 49 131 1.0 3.0 0.00 0.13 0.00 95 1025.0
20260906060126 49 131 1.0 3.0 0.00 0.13 0.00 95 1025.0
20260906060025 49 131 1.0 3.0 0.00 0.13 0.00 95 1025.0
20260906055954 49 130 1.0 3.0 0.00 0.13 0.00 95 1025.0
20260906055948 49 130 1.0 3.0 0.00 0.13 0.00 95 1025.0
20260906055939 49 130 1.0 3.0 0.00 0.13 0.00 95 1025.0
20260906055725 49 130 1.0 3.0 0.00 0.13 0.00 95 1025.0
20260906055625 49 130 1.0 3.0 0.00 0.13 0.00 94 1025.0
20260906055525 49 130 1.0 3.0 0.00 0.13 0.00 94 1025.0
20260906055426 49 130 1.0 3.0 0.00 0.13 0.00 94 1025.0
20260906055325 49 130 1.0 3.0 0.00 0.13 0.00 94 1025.0
20260906055225 49 130 1.0 3.0 0.00 0.13 0.00 94 1025.2
20260906055126 49 131 0.0 3.0 0.00 0.13 0.00 94 1025.2
20260906055026 49 130 0.0 3.0 0.00 0.13 0.00 94 1025.3
20260906054926 49 130 0.0 2.0 0.00 0.13 0.00 94 1025.3
20260906054829 49 130 0.0 2.0 0.00 0.13 0.00 95 1025.3
20260906054729 49 130 0.0 2.0 0.00 0.13 0.00 95 1025.3
20260906054722 49 130 0.0 2.0 0.00 0.13 0.00 95 1025.2
20260906054621 49 130 0.0 2.0 0.00 0.13 0.00 95 1025.2
20260906054521 49 130 0.0 1.0 0.00 0.13 0.00 95 1025.2
20260906054421 49 130 0.0 1.0 0.00 0.13 0.00 94 1025.3
20260906054321 49 130 0.0 0.0 0.00 0.13 0.00 94 1025.2
20260906054221 49 130 0.0 0.0 0.00 0.13 0.00 94 1025.2
20260906054121 49 130 0.0 0.0 0.00 0.13 0.00 94 1025.2
20260906054021 49 130 0.0 1.0 0.00 0.13 0.00 94 1025.2
20260906053952 49 130 0.0 2.0 0.00 0.13 0.00 94 1025.2
20260906053947 49 130 0.0 2.0 0.00 0.13 0.00 94 1025.2
20260906053943 49 130 0.0 2.0 0.00 0.13 0.00 94 1025.2
20260906053719 49 130 0.0 2.0 0.00 0.13 0.00 94 1025.2
20260906053618 49 130 0.0 2.0 0.00 0.13 0.00 94 1025.3
20260906053519 49 130 0.0 2.0 0.00 0.13 0.00 94 1025.2
20260906053419 49 130 0.0 2.0 0.00 0.13 0.00 94 1025.2
20260906053317 49 130 0.0 2.0 0.00 0.13 0.00 94 1025.2
20260906053228 49 130 0.0 2.0 0.00 0.13 0.00 94 1025.2
20260906053215 49 130 0.0 2.0 0.00 0.13 0.00 94 1025.0
20260906053112 49 130 1.0 2.0 0.00 0.13 0.00 94 1025.2
20260906053008 49 130 1.0 2.0 0.00 0.13 0.00 94 1025.2
20260906052905 49 130 1.0 2.0 0.00 0.13 0.00 94 1025.2
20260906052802 49 130 1.0 2.0 0.00 0.13 0.00 94 1025.2
20260906052729 49 130 1.0 2.0 0.00 0.13 0.00 94 1025.2
20260906052701 49 130 1.0 2.0 0.00 0.13 0.00 94 1025.0
20260906052601 49 130 1.0 2.0 0.00 0.13 0.00 94 1025.0
20260906052501 49 130 1.0 2.0 0.00 0.13 0.00 93 1025.0
20260906052401 49 130 1.0 2.0 0.00 0.13 0.00 93 1025.0
20260906052305 49 130 1.0 2.0 0.00 0.13 0.00 93 1025.2
20260906052230 49 130 1.0 2.0 0.00 0.13 0.00 93 1025.2
20260906052201 49 130 1.0 2.0 0.00 0.13 0.00 94 1025.0
20260906052101 49 130 1.0 2.0 0.00 0.13 0.00 94 1025.2
20260906052001 49 130 1.0 2.0 0.00 0.13 0.00 94 1025.2
20260906051901 49 130 1.0 2.0 0.00 0.13 0.00 94 1025.2
20260906051801 49 130 1.0 2.0 0.00 0.13 0.00 94 1025.2
20260906051729 49 130 1.0 2.0 0.00 0.13 0.00 94 1025.2
20260906051701 49 130 0.0 2.0 0.00 0.13 0.00 94 1025.0
20260906051600 49 130 0.0 2.0 0.00 0.13 0.00 94 1025.0
20260906051501 49 130 0.0 2.0 0.00 0.13 0.00 94 1025.0
20260906051453 49 130 0.0 1.0 0.00 0.13 0.00 94 1025.0
20260906051448 49 130 0.0 2.0 0.00 0.13 0.00 94 1025.0
20260906051440 49 130 0.0 2.0 0.00 0.13 0.00 94 1025.0
20260906051200 49 130 0.0 0.0 0.00 0.13 0.00 94 1025.0
20260906051100 49 130 0.0 0.0 0.00 0.13 0.00 94 1025.0
20260906051000 49 130 0.0 0.0 0.00 0.13 0.00 93 1025.0
20260906050900 49 130 0.0 0.0 0.00 0.13 0.00 93 1025.0
20260906050804 49 130 0.0 0.0 0.00 0.13 0.00 93 1025.0
20260906050701 49 130 0.0 0.0 0.00 0.13 0.00 93 1025.0
20260906050602 49 130 0.0 0.0 0.00 0.13 0.00 93 1025.0
20260906050501 49 130 0.0 0.0 0.00 0.13 0.00 93 1025.0
20260906050401 49 130 0.0 0.0 0.00 0.13 0.00 93 1025.0
20260906050303 49 130 0.0 0.0 0.00 0.13 0.00 93 1025.0
20260906050201 49 130 0.0 0.0 0.00 0.13 0.00 93 1025.0
20260906050101 50 130 0.0 0.0 0.00 0.13 0.00 93 1025.0
20260906050000 50 130 0.0 0.0 0.00 0.13 0.00 93 1025.0
20260906045900 50 130 0.0 0.0 0.00 0.13 0.00 93 1025.0
20260906045800 50 130 0.0 0.0 0.00 0.13 0.00 93 1025.2
20260906045729 50 130 0.0 0.0 0.00 0.13 0.00 94 1025.2
20260906045700 50 130 0.0 0.0 0.00 0.13 0.00 94 1025.2
20260906045600 50 130 0.0 0.0 0.00 0.13 0.00 94 1025.2
20260906045458 50 130 0.0 0.0 0.00 0.13 0.00 94 1025.2
20260906045357 50 130 0.0 0.0 0.00 0.13 0.00 94 1025.2
20260906045259 50 130 0.0 0.0 0.00 0.13 0.00 94 1025.2
20260906045229 50 130 0.0 0.0 0.00 0.13 0.00 94 1025.2
20260906045153 50 130 0.0 0.0 0.00 0.13 0.00 94 1025.2
20260906045053 50 130 0.0 0.0 0.00 0.13 0.00 94 1025.2
20260906044951 50 130 0.0 0.0 0.00 0.13 0.00 94 1025.2
20260906044947 50 130 0.0 0.0 0.00 0.13 0.00 94 1025.2
20260906044939 50 130 0.0 0.0 0.00 0.13 0.00 94 1025.2
20260906044651 50 130 0.0 0.0 0.00 0.13 0.00 94 1025.2
20260906044552 50 130 0.0 0.0 0.00 0.13 0.00 94 1025.2
20260906044450 50 130 0.0 0.0 0.00 0.13 0.00 94 1025.2
20260906044349 50 130 0.0 0.0 0.00 0.13 0.00 94 1025.0
20260906044228 50 130 0.0 0.0 0.00 0.13 0.00 94 1025.0
20260906044146 50 130 0.0 0.0 0.00 0.13 0.00 94 1025.0
20260906044046 50 130 0.0 0.0 0.00 0.13 0.00 94 1025.0
20260906043943 50 130 0.0 0.0 0.00 0.13 0.00 94 1025.0
20260906043843 50 130 0.0 0.0 0.00 0.13 0.00 94 1025.0
20260906043729 50 130 0.0 0.0 0.00 0.13 0.00 94 1025.0
20260906043712 51 130 0.0 0.0 0.00 0.13 0.00 94 1024.9
20260906043703 50 130 0.0 0.0 0.00 0.13 0.00 94 1025.0
20260906043659 50 130 0.0 0.0 0.00 0.13 0.00 94 1025.0
20260906043655 50 130 0.0 0.0 0.00 0.13 0.00 94 1025.0
20260906043651 50 130 0.0 0.0 0.00 0.13 0.00 94 1025.0
20260906043643 50 130 0.0 0.0 0.00 0.13 0.00 94 1025.0
20260906043213 50 130 0.0 0.0 0.00 0.13 0.00 94 1025.0
20260906043208 50 130 0.0 0.0 0.00 0.13 0.00 94 1025.0
20260906042953 50 130 0.0 0.0 0.00 0.13 0.00 94 1025.0
20260906042949 50 130 0.0 0.0 0.00 0.13 0.00 94 1024.9
20260906042941 51 130 0.0 0.0 0.00 0.13 0.00 94 1024.9
20260906042629 51 130 0.0 0.0 0.00 0.13 0.00 94 1024.9
20260906042529 51 130 0.0 0.0 0.00 0.13 0.00 93 1024.9
20260906042452 51 130 0.0 0.0 0.00 0.13 0.00 93 1024.9
20260906042448 51 130 0.0 1.0 0.00 0.13 0.00 94 1024.9
20260906042440 51 130 0.0 1.0 0.00 0.13 0.00 93 1024.9
20260906042129 51 130 0.0 1.0 0.00 0.13 0.00 94 1024.9
20260906042029 51 130 0.0 1.0 0.00 0.13 0.00 94 1025.0
20260906041929 51 130 0.0 1.0 0.00 0.13 0.00 94 1025.0
20260906041829 51 130 0.0 1.0 0.00 0.13 0.00 94 1025.0
20260906041729 51 130 0.0 1.0 0.00 0.13 0.00 94 1025.0
20260906041629 51 130 0.0 1.0 0.00 0.13 0.00 94 1025.0
20260906041529 51 130 0.0 1.0 0.00 0.13 0.00 94 1025.0
20260906041429 51 130 0.0 1.0 0.00 0.13 0.00 94 1025.0
20260906041329 51 130 0.0 1.0 0.00 0.13 0.00 94 1024.9
20260906041229 51 130 0.0 1.0 0.00 0.13 0.00 94 1024.9
20260906041129 51 130 0.0 1.0 0.00 0.13 0.00 94 1024.9
20260906041029 51 130 0.0 1.0 0.00 0.13 0.00 95 1025.0
20260906040929 51 130 0.0 1.0 0.00 0.13 0.00 95 1024.9
20260906040829 51 130 0.0 1.0 0.00 0.13 0.00 95 1024.9
20260906040729 51 130 0.0 1.0 0.00 0.13 0.00 95 1024.9
20260906040628 51 130 0.0 1.0 0.00 0.13 0.00 95 1024.9
20260906040528 51 130 0.0 1.0 0.00 0.13 0.00 95 1024.8
20260906040428 51 130 0.0 2.0 0.00 0.13 0.00 95 1024.8
20260906040328 51 130 0.0 2.0 0.00 0.13 0.00 95 1024.9
20260906040228 51 130 0.0 2.0 0.00 0.13 0.00 95 1024.9
20260906040128 51 130 0.0 2.0 0.00 0.13 0.00 95 1024.9
20260906040028 51 130 0.0 2.0 0.00 0.13 0.00 95 1024.8
20260906035953 51 130 0.0 2.0 0.00 0.13 0.00 95 1024.8
20260906035949 51 130 0.0 2.0 0.00 0.13 0.00 95 1024.8
20260906035941 51 130 0.0 2.0 0.00 0.13 0.00 94 1024.8
20260906035630 51 130 0.0 2.0 0.00 0.13 0.00 95 1024.7
20260906035529 51 130 0.0 2.0 0.00 0.13 0.00 95 1024.7
20260906035430 51 130 0.0 2.0 0.00 0.13 0.00 95 1024.7
20260906035329 51 130 0.0 2.0 0.00 0.13 0.00 94 1024.7
20260906035234 51 130 0.0 2.0 0.00 0.13 0.00 94 1024.7
20260906035130 51 130 0.0 2.0 0.00 0.13 0.00 94 1024.7
20260906035030 51 130 0.0 2.0 0.00 0.13 0.00 94 1024.7
20260906034929 51 130 0.0 2.0 0.00 0.13 0.00 94 1024.7
20260906034829 51 130 0.0 2.0 0.00 0.13 0.00 94 1024.7
20260906034730 51 130 0.0 2.0 0.00 0.13 0.00 94 1024.7
20260906034629 51 130 0.0 2.0 0.00 0.13 0.00 94 1024.7
20260906034529 51 130 0.0 2.0 0.00 0.13 0.00 94 1024.7
20260906034429 51 130 0.0 2.0 0.00 0.13 0.00 94 1024.7
20260906034329 51 130 0.0 2.0 0.00 0.13 0.00 94 1024.7
20260906034229 51 130 0.0 2.0 0.00 0.13 0.00 94 1024.8
20260906034129 51 130 0.0 2.0 0.00 0.13 0.00 94 1024.8
20260906034029 51 130 0.0 2.0 0.00 0.13 0.00 94 1024.8
20260906033929 51 130 0.0 2.0 0.00 0.13 0.00 94 1024.8
20260906033829 51 130 0.0 2.0 0.00 0.13 0.00 94 1024.8
20260906033729 51 130 0.0 2.0 0.00 0.13 0.00 94 1024.8
20260906033629 51 130 0.0 2.0 0.00 0.13 0.00 94 1024.7
20260906033529 51 130 0.0 2.0 0.00 0.13 0.00 94 1024.8
20260906033428 51 130 0.0 2.0 0.00 0.13 0.00 94 1024.8
20260906033328 51 130 0.0 0.0 0.00 0.13 0.00 94 1024.8
20260906033228 51 130 0.0 0.0 0.00 0.13 0.00 94 1024.7
20260906033131 51 130 0.0 0.0 0.00 0.13 0.00 94 1024.8
20260906033027 51 130 0.0 0.0 0.00 0.13 0.00 94 1024.9
20260906032925 51 130 0.0 0.0 0.00 0.13 0.00 94 1024.8
20260906032825 51 130 0.0 0.0 0.00 0.13 0.00 94 1024.8
20260906032723 51 130 0.0 0.0 0.00 0.13 0.00 94 1024.8
20260906032623 51 130 0.0 0.0 0.00 0.13 0.00 94 1024.8
20260906032523 51 130 0.0 0.0 0.00 0.13 0.00 94 1024.8
20260906032423 51 130 0.0 0.0 0.00 0.13 0.00 94 1024.8
20260906032323 51 130 0.0 0.0 0.00 0.13 0.00 94 1024.8
20260906032221 51 130 0.0 0.0 0.00 0.13 0.00 94 1024.8
20260906032121 51 130 0.0 0.0 0.00 0.13 0.00 94 1024.8
20260906032019 51 130 0.0 0.0 0.00 0.13 0.00 94 1024.8
20260906031919 51 130 0.0 0.0 0.00 0.13 0.00 94 1024.8
20260906031819 51 130 0.0 0.0 0.00 0.13 0.00 94 1024.7
20260906031729 51 130 0.0 0.0 0.00 0.13 0.00 94 1024.7
20260906031719 51 130 0.0 0.0 0.00 0.13 0.00 94 1024.8
20260906031619 51 130 0.0 0.0 0.00 0.13 0.00 94 1024.8
20260906031519 51 130 0.0 0.0 0.00 0.13 0.00 93 1024.7
20260906031417 51 130 0.0 0.0 0.00 0.13 0.00 93 1024.8
20260906031317 51 130 0.0 0.0 0.00 0.13 0.00 93 1024.8
20260906031217 51 130 0.0 0.0 0.00 0.13 0.00 93 1024.8
20260906031117 51 130 0.0 0.0 0.00 0.13 0.00 93 1024.7
20260906031017 51 130 0.0 0.0 0.00 0.13 0.00 93 1024.7
20260906030915 51 130 0.0 0.0 0.00 0.13 0.00 93 1024.7
20260906030813 51 130 0.0 0.0 0.00 0.13 0.00 93 1024.7
20260906030728 51 130 0.0 0.0 0.00 0.13 0.00 93 1024.7
20260906030713 51 130 0.0 0.0 0.00 0.13 0.00 93 1024.6
20260906030611 51 130 0.0 0.0 0.00 0.13 0.00 93 1024.7
20260906030509 51 130 0.0 0.0 0.00 0.13 0.00 93 1024.6
20260906030409 51 130 0.0 0.0 0.00 0.13 0.00 93 1024.6
20260906030307 51 130 0.0 0.0 0.00 0.13 0.00 93 1024.6
20260906030208 51 130 0.0 0.0 0.00 0.13 0.00 93 1024.6
20260906030105 51 130 0.0 1.0 0.00 0.13 0.00 93 1024.6
20260906030005 51 130 0.0 1.0 0.00 0.13 0.00 93 1024.5
20260906025901 51 130 0.0 1.0 0.00 0.13 0.00 93 1024.5
20260906025801 51 130 0.0 1.0 0.00 0.13 0.00 93 1024.5
20260906025705 51 130 0.0 1.0 0.00 0.13 0.00 93 1024.5
20260906025602 51 130 0.0 1.0 0.00 0.13 0.00 93 1024.6
20260906025502 51 130 0.0 1.0 0.00 0.13 0.00 93 1024.5
20260906025402 51 130 0.0 1.0 0.00 0.13 0.00 93 1024.5
20260906025301 51 130 0.0 1.0 0.00 0.13 0.00 93 1024.5
20260906025229 51 130 0.0 1.0 0.00 0.13 0.00 93 1024.5
20260906025203 51 130 0.0 2.0 0.00 0.13 0.00 93 1024.6
20260906025102 51 130 0.0 2.0 0.00 0.13 0.00 93 1024.5
20260906025001 51 130 0.0 2.0 0.00 0.13 0.00 93 1024.5
20260906024901 51 130 0.0 2.0 0.00 0.13 0.00 93 1024.6
20260906024801 51 130 1.0 2.0 0.00 0.13 0.00 93 1024.5
20260906024701 51 130 1.0 2.0 0.00 0.13 0.00 93 1024.5
20260906024601 51 130 1.0 2.0 0.00 0.13 0.00 93 1024.5
20260906024501 51 130 1.0 2.0 0.00 0.13 0.00 93 1024.5
20260906024401 51 130 1.0 2.0 0.00 0.13 0.00 93 1024.5
20260906024301 51 130 1.0 2.0 0.00 0.13 0.00 93 1024.5
20260906024200 51 130 1.0 2.0 0.00 0.13 0.00 93 1024.5
20260906024100 51 130 1.0 2.0 0.00 0.13 0.00 93 1024.5
20260906024000 51 130 1.0 2.0 0.00 0.13 0.00 93 1024.5
20260906023900 51 130 1.0 3.0 0.00 0.13 0.00 93 1024.5
20260906023800 51 130 1.0 3.0 0.00 0.13 0.00 94 1024.5
20260906023701 51 130 1.0 3.0 0.00 0.13 0.00 94 1024.5
20260906023600 51 130 1.0 3.0 0.00 0.13 0.00 93 1024.5
20260906023500 51 130 1.0 3.0 0.00 0.13 0.00 94 1024.5
20260906023400 51 130 1.0 3.0 0.00 0.13 0.00 93 1024.5
20260906023300 51 130 1.0 3.0 0.00 0.13 0.00 93 1024.5
20260906023228 51 130 1.0 3.0 0.00 0.13 0.00 93 1024.5
20260906023201 51 130 1.0 3.0 0.00 0.13 0.00 93 1024.6
20260906023101 51 130 0.0 3.0 0.00 0.13 0.00 93 1024.5
20260906023001 51 128 0.0 3.0 0.00 0.13 0.00 93 1024.5
20260906022949 51 126 0.0 2.0 0.00 0.13 0.00 93 1024.5
20260906022944 51 127 0.0 1.0 0.00 0.13 0.00 93 1024.5
20260906022940 51 128 0.0 2.0 0.00 0.13 0.00 93 1024.5
20260906022701 51 126 0.0 2.0 0.00 0.13 0.00 93 1024.5
20260906022601 51 126 0.0 2.0 0.00 0.13 0.00 93 1024.6
20260906022501 51 126 1.0 2.0 0.00 0.13 0.00 93 1024.6
20260906022401 51 126 1.0 3.0 0.00 0.13 0.00 93 1024.6
20260906022301 51 126 1.0 3.0 0.00 0.13 0.00 92 1024.6
20260906022201 51 126 1.0 3.0 0.00 0.13 0.00 92 1024.6
20260906022101 51 126 1.0 3.0 0.00 0.13 0.00 92 1024.6
20260906022001 51 126 1.0 3.0 0.00 0.13 0.00 92 1024.5
20260906021901 51 126 1.0 3.0 0.00 0.13 0.00 92 1024.6
20260906021801 51 126 1.0 3.0 0.00 0.13 0.00 92 1024.5
20260906021729 51 126 1.0 3.0 0.00 0.13 0.00 92 1024.5
20260906021701 51 126 0.0 3.0 0.00 0.13 0.00 92 1024.6
20260906021600 51 126 0.0 3.0 0.00 0.13 0.00 92 1024.7
20260906021500 51 127 0.0 3.0 0.00 0.13 0.00 92 1024.6
20260906021401 51 134 0.0 2.0 0.00 0.13 0.00 92 1024.6
20260906021301 51 134 0.0 2.0 0.00 0.13 0.00 92 1024.7
20260906021228 51 134 0.0 2.0 0.00 0.13 0.00 92 1024.7
20260906021201 51 135 0.0 1.0 0.00 0.13 0.00 92 1024.6
20260906021101 51 135 0.0 1.0 0.00 0.13 0.00 92 1024.6
20260906021001 51 135 0.0 1.0 0.00 0.13 0.00 92 1024.6
20260906020901 51 135 0.0 1.0 0.00 0.13 0.00 92 1024.6
20260906020801 51 135 0.0 1.0 0.00 0.13 0.00 91 1024.6
20260906020700 51 135 0.0 1.0 0.00 0.13 0.00 91 1024.6
20260906020600 51 135 0.0 2.0 0.00 0.13 0.00 91 1024.7
20260906020500 51 135 0.0 2.0 0.00 0.13 0.00 91 1024.6
20260906020400 51 135 0.0 2.0 0.00 0.13 0.00 91 1024.6
20260906020300 51 135 0.0 2.0 0.00 0.13 0.00 91 1024.6
20260906020201 51 135 0.0 2.0 0.00 0.13 0.00 91 1024.6
20260906020059 51 135 0.0 2.0 0.00 0.13 0.00 91 1024.6
20260906015959 51 135 0.0 2.0 0.00 0.13 0.00 91 1024.6
20260906015859 51 135 0.0 2.0 0.00 0.13 0.00 91 1024.6
20260906015729 52 135 0.0 2.0 0.00 0.13 0.00 92 1024.6
20260906015659 52 135 0.0 2.0 0.00 0.13 0.00 92 1024.6
20260906015559 52 134 0.0 2.0 0.00 0.13 0.00 92 1024.6
20260906015458 52 135 0.0 0.0 0.00 0.13 0.00 92 1024.6
20260906015359 52 134 0.0 0.0 0.00 0.13 0.00 91 1024.6
20260906015229 52 134 0.0 0.0 0.00 0.13 0.00 91 1024.6
20260906015157 52 134 0.0 0.0 0.00 0.13 0.00 91 1024.6
20260906015055 52 134 0.0 0.0 0.00 0.13 0.00 91 1024.6
20260906014953 52 134 0.0 0.0 0.00 0.13 0.00 91 1024.6
20260906014853 52 134 0.0 0.0 0.00 0.13 0.00 91 1024.6
20260906014729 52 134 0.0 0.0 0.00 0.13 0.00 91 1024.6
20260906014651 52 134 0.0 0.0 0.00 0.13 0.00 91 1024.6
20260906014549 52 134 0.0 0.0 0.00 0.13 0.00 92 1024.6
20260906014447 52 134 0.0 0.0 0.00 0.13 0.00 92 1024.6
20260906014344 52 134 0.0 0.0 0.00 0.13 0.00 92 1024.6
20260906014229 52 134 0.0 0.0 0.00 0.13 0.00 92 1024.6
20260906014145 52 134 0.0 0.0 0.00 0.13 0.00 92 1024.6
20260906014043 52 134 0.0 0.0 0.00 0.13 0.00 92 1024.6
20260906013940 52 134 0.0 0.0 0.00 0.13 0.00 92 1024.5
20260906013841 52 134 0.0 0.0 0.00 0.13 0.00 92 1024.5
20260906013727 52 134 0.0 0.0 0.00 0.13 0.00 92 1024.4
20260906013639 52 134 0.0 0.0 0.00 0.13 0.00 92 1024.4
20260906013537 52 134 0.0 0.0 0.00 0.13 0.00 92 1024.4
20260906013435 52 134 0.0 0.0 0.00 0.13 0.00 92 1024.4
20260906013335 52 134 0.0 0.0 0.00 0.13 0.00 92 1024.4
20260906013226 52 134 0.0 0.0 0.00 0.13 0.00 92 1024.4
20260906013130 52 134 0.0 0.0 0.00 0.13 0.00 92 1024.4
20260906013030 52 134 0.0 0.0 0.00 0.13 0.00 92 1024.4
20260906012946 52 134 0.0 0.0 0.00 0.13 0.00 92 1024.4
20260906012942 52 134 0.0 0.0 0.00 0.13 0.00 92 1024.3
20260906012938 52 134 0.0 0.0 0.00 0.13 0.00 92 1024.4
20260906012629 52 134 0.0 0.0 0.00 0.13 0.00 92 1024.4
20260906012529 52 134 0.0 0.0 0.00 0.13 0.00 92 1024.4
20260906012429 52 134 0.0 0.0 0.00 0.13 0.00 92 1024.4
20260906012329 52 134 0.0 0.0 0.00 0.13 0.00 92 1024.4
20260906012225 52 134 0.0 0.0 0.00 0.13 0.00 92 1024.4
20260906012129 52 134 0.0 0.0 0.00 0.13 0.00 92 1024.4
20260906012029 52 134 0.0 0.0 0.00 0.13 0.00 92 1024.4
20260906011929 52 134 0.0 0.0 0.00 0.13 0.00 92 1024.4
20260906011829 52 134 0.0 0.0 0.00 0.13 0.00 92 1024.4
20260906011722 52 134 0.0 0.0 0.00 0.13 0.00 91 1024.4
20260906011628 52 134 0.0 0.0 0.00 0.13 0.00 92 1024.4
20260906011529 52 134 0.0 0.0 0.00 0.13 0.00 92 1024.4
20260906011429 52 134 0.0 0.0 0.00 0.13 0.00 91 1024.4
20260906011328 52 134 0.0 0.0 0.00 0.13 0.00 91 1024.4
20260906011221 52 134 0.0 0.0 0.00 0.13 0.00 91 1024.4
20260906011128 52 134 0.0 0.0 0.00 0.13 0.00 91 1024.4
20260906011029 52 134 0.0 0.0 0.00 0.13 0.00 91 1024.4
20260906010929 52 134 0.0 0.0 0.00 0.13 0.00 91 1024.4
20260906010829 52 134 0.0 0.0 0.00 0.13 0.00 91 1024.4
20260906010729 52 134 0.0 0.0 0.00 0.13 0.00 91 1024.3
20260906010718 52 134 0.0 0.0 0.00 0.13 0.00 91 1024.4
20260906010628 52 134 0.0 0.0 0.00 0.13 0.00 91 1024.4
20260906010528 52 134 0.0 0.0 0.00 0.13 0.00 91 1024.4
20260906010428 52 134 0.0 0.0 0.00 0.13 0.00 91 1024.4
20260906010328 53 134 0.0 0.0 0.00 0.13 0.00 91 1024.4
20260906010228 52 134 0.0 0.0 0.00 0.13 0.00 91 1024.4
20260906010219 52 134 0.0 1.0 0.00 0.13 0.00 91 1024.4
20260906010129 53 134 0.0 1.0 0.00 0.13 0.00 91 1024.4
20260906010030 53 134 0.0 1.0 0.00 0.13 0.00 91 1024.4
20260906005930 53 134 0.0 1.0 0.00 0.13 0.00 91 1024.4
20260906005828 53 134 0.0 1.0 0.00 0.13 0.00 91 1024.4
20260906005719 53 134 0.0 1.0 0.00 0.13 0.00 91 1024.4
20260906005629 53 134 0.0 1.0 0.00 0.13 0.00 91 1024.4
20260906005529 53 134 0.0 1.0 0.00 0.13 0.00 91 1024.4
20260906005429 53 134 0.0 1.0 0.00 0.13 0.00 91 1024.4
20260906005329 53 134 0.0 1.0 0.00 0.13 0.00 91 1024.4
20260906005218 53 134 0.0 1.0 0.00 0.13 0.00 91 1024.4
20260906005128 53 134 0.0 1.0 0.00 0.13 0.00 91 1024.4
20260906005029 53 134 0.0 1.0 0.00 0.13 0.00 90 1024.4
20260906004936 53 134 0.0 1.0 0.00 0.13 0.00 90 1024.5
20260906004931 53 134 0.0 1.0 0.00 0.13 0.00 90 1024.4
20260906004927 53 134 0.0 1.0 0.00 0.13 0.00 90 1024.4
20260906004923 53 134 0.0 1.0 0.00 0.13 0.00 90 1024.4
20260906004628 53 134 0.0 1.0 0.00 0.13 0.00 90 1024.5
20260906004532 53 134 0.0 2.0 0.00 0.13 0.00 90 1024.4
20260906004432 53 134 0.0 3.0 0.00 0.13 0.00 90 1024.4
20260906004428 53 134 1.0 4.0 0.00 0.13 0.00 90 1024.4
20260906004424 53 134 1.0 4.0 0.00 0.13 0.00 90 1024.4
20260906004129 53 134 1.0 4.0 0.00 0.13 0.00 90 1024.4
20260906004030 53 134 2.0 5.0 0.00 0.13 0.00 90 1024.4
20260906003929 53 134 2.0 5.0 0.00 0.13 0.00 90 1024.5
20260906003829 53 134 2.0 5.0 0.00 0.13 0.00 90 1024.5
20260906003729 53 134 2.0 5.0 0.00 0.13 0.00 90 1024.4
20260906003710 53 134 2.0 5.0 0.00 0.13 0.00 90 1024.5
20260906003629 53 134 2.0 5.0 0.00 0.13 0.00 90 1024.5
20260906003528 53 134 1.0 5.0 0.00 0.13 0.00 90 1024.5
20260906003429 53 134 1.0 5.0 0.00 0.13 0.00 90 1024.4
20260906003328 53 138 1.0 5.0 0.00 0.13 0.00 90 1024.5
20260906003228 53 139 1.0 5.0 0.00 0.13 0.00 90 1024.4
20260906003209 53 140 0.0 5.0 0.00 0.13 0.00 90 1024.5
20260906003129 53 139 0.0 5.0 0.00 0.13 0.00 91 1024.5
20260906003029 53 198 0.0 2.0 0.00 0.13 0.00 91 1024.4
20260906002929 53 198 0.0 0.0 0.00 0.13 0.00 91 1024.4
20260906002925 53 198 0.0 0.0 0.00 0.13 0.00 91 1024.4
20260906002921 53 198 0.0 0.0 0.00 0.13 0.00 91 1024.4
20260906002630 53 198 0.0 0.0 0.00 0.13 0.00 91 1024.4
20260906002529 53 198 0.0 0.0 0.00 0.13 0.00 90 1024.4
20260906002429 53 198 0.0 0.0 0.00 0.13 0.00 90 1024.4
20260906002328 53 198 0.0 0.0 0.00 0.13 0.00 90 1024.4
20260906002228 53 198 0.0 0.0 0.00 0.13 0.00 90 1024.4
20260906002209 53 198 0.0 0.0 0.00 0.13 0.00 90 1024.5
20260906002128 53 198 0.0 0.0 0.00 0.13 0.00 90 1024.5
20260906002029 54 198 0.0 0.0 0.00 0.13 0.00 90 1024.4
20260906001929 54 198 0.0 0.0 0.00 0.13 0.00 90 1024.4
20260906001829 54 198 0.0 0.0 0.00 0.13 0.00 90 1024.4
20260906001709 54 198 0.0 0.0 0.00 0.13 0.00 90 1024.4
20260906001628 54 198 0.0 0.0 0.00 0.13 0.00 90 1024.4
20260906001529 54 198 0.0 0.0 0.00 0.13 0.00 90 1024.3
20260906001429 54 198 0.0 0.0 0.00 0.13 0.00 90 1024.3
20260906001329 54 198 0.0 0.0 0.00 0.13 0.00 90 1024.4
20260906001209 54 198 0.0 0.0 0.00 0.13 0.00 90 1024.3
20260906001129 54 198 0.0 0.0 0.00 0.13 0.00 90 1024.3
20260906001029 54 198 0.0 0.0 0.00 0.13 0.00 90 1024.4
20260906000928 54 198 0.0 0.0 0.00 0.13 0.00 90 1024.3
20260906000828 54 198 0.0 0.0 0.00 0.13 0.00 90 1024.3
20260906000709 54 198 0.0 0.0 0.00 0.13 0.00 90 1024.3
20260906000629 54 198 0.0 0.0 0.00 0.13 0.00 90 1024.3
20260906000529 54 198 0.0 0.0 0.00 0.13 0.00 90 1024.3
20260906000429 54 198 0.0 0.0 0.00 0.13 0.00 90 1024.2
20260906000329 54 198 0.0 0.0 0.00 0.13 0.00 90 1024.2
20260906000208 54 198 0.0 0.0 0.00 0.13 0.00 90 1024.2
20260906000129 54 198 0.0 0.0 0.00 0.13 0.00 90 1024.2
20260906000029 54 198 0.0 0.0 0.00 0.13 0.00 90 1024.3
20260905235929 54 198 0.0 0.0 0.00 0.13 0.00 90 1024.3
20260905235825 54 198 0.0 0.0 0.00 0.13 0.00 90 1024.3
20260905235707 54 198 0.0 0.0 0.00 0.13 0.00 90 1024.3
20260905235622 54 198 0.0 0.0 0.00 0.13 0.00 90 1024.3
20260905235522 54 198 0.0 0.0 0.00 0.13 0.00 90 1024.3
20260905235420 54 198 0.0 0.0 0.00 0.13 0.00 90 1024.3
20260905235317 54 198 0.0 0.0 0.00 0.13 0.00 90 1024.3
20260905235207 54 198 0.0 0.0 0.00 0.13 0.00 90 1024.3
20260905235117 54 198 0.0 0.0 0.00 0.13 0.00 90 1024.4
20260905235017 54 198 0.0 0.0 0.00 0.13 0.00 90 1024.3
20260905234917 54 198 0.0 0.0 0.00 0.13 0.00 90 1024.3
20260905234817 54 198 0.0 0.0 0.00 0.13 0.00 90 1024.3
20260905234706 54 198 0.0 0.0 0.00 0.13 0.00 90 1024.4
20260905234615 54 198 0.0 0.0 0.00 0.13 0.00 90 1024.4
20260905234516 54 198 0.0 0.0 0.00 0.13 0.00 90 1024.4
20260905234412 54 198 0.0 0.0 0.00 0.13 0.00 90 1024.4
20260905234312 55 198 0.0 0.0 0.00 0.13 0.00 90 1024.4
20260905234206 55 198 0.0 0.0 0.00 0.13 0.00 90 1024.4
20260905234111 55 198 0.0 0.0 0.00 0.13 0.00 90 1024.4
20260905234011 55 198 0.0 0.0 0.00 0.13 0.00 90 1024.5
20260905233911 55 198 0.0 0.0 0.00 0.13 0.00 90 1024.4
20260905233811 55 198 0.0 0.0 0.00 0.13 0.00 90 1024.5
20260905233707 55 198 0.0 0.0 0.00 0.13 0.00 90 1024.4
20260905233611 55 198 0.0 0.0 0.00 0.13 0.00 90 1024.4
20260905233510 55 198 0.0 0.0 0.00 0.13 0.00 90 1024.5
20260905233411 55 198 0.0 0.0 0.00 0.13 0.00 90 1024.5
20260905233310 55 198 0.0 0.0 0.00 0.13 0.00 90 1024.4
20260905233202 55 198 0.0 0.0 0.00 0.13 0.00 90 1024.4
20260905233110 55 198 0.0 0.0 0.00 0.13 0.00 90 1024.4
20260905232906 55 198 0.0 0.0 0.00 0.13 0.00 90 1024.4
20260905232806 55 198 0.0 0.0 0.00 0.13 0.00 89 1024.4
20260905232703 55 198 0.0 0.0 0.00 0.13 0.00 89 1024.4
20260905232607 55 198 0.0 0.0 0.00 0.13 0.00 89 1024.4
20260905232507 55 198 0.0 0.0 0.00 0.13 0.00 89 1024.4
20260905232407 55 198 0.0 0.0 0.00 0.13 0.00 89 1024.4
20260905232306 55 198 0.0 0.0 0.00 0.13 0.00 89 1024.4
20260905232202 55 198 0.0 0.0 0.00 0.13 0.00 89 1024.4
20260905232106 55 198 0.0 0.0 0.00 0.13 0.00 89 1024.4
20260905232007 55 198 0.0 0.0 0.00 0.13 0.00 89 1024.4
20260905231906 55 198 0.0 0.0 0.00 0.13 0.00 89 1024.4
20260905231806 55 198 0.0 0.0 0.00 0.13 0.00 89 1024.4
20260905231703 55 198 0.0 0.0 0.00 0.13 0.00 89 1024.4
20260905231607 55 198 0.0 0.0 0.00 0.13 0.00 89 1024.4
20260905231507 55 198 0.0 0.0 0.00 0.13 0.00 89 1024.5
20260905231407 55 198 0.0 0.0 0.00 0.13 0.00 89 1024.4
20260905231307 55 198 0.0 0.0 0.00 0.13 0.00 89 1024.4
20260905231203 55 198 0.0 0.0 0.00 0.13 0.00 89 1024.4
20260905231107 55 198 0.0 0.0 0.00 0.13 0.00 89 1024.4
20260905231003 56 198 0.0 0.0 0.00 0.13 0.00 89 1024.5
20260905230903 56 198 0.0 0.0 0.00 0.13 0.00 89 1024.5
20260905230803 56 198 0.0 0.0 0.00 0.13 0.00 89 1024.5
20260905230702 56 198 0.0 0.0 0.00 0.13 0.00 89 1024.5
20260905230602 56 198 0.0 0.0 0.00 0.13 0.00 90 1024.5
20260905230502 56 198 0.0 0.0 0.00 0.13 0.00 90 1024.5
20260905230402 56 198 0.0 0.0 0.00 0.13 0.00 91 1024.5
20260905230302 56 198 0.0 0.0 0.00 0.13 0.00 91 1024.5
20260905230201 56 198 0.0 0.0 0.00 0.13 0.00 91 1024.5
20260905230100 56 198 0.0 0.0 0.00 0.13 0.00 90 1024.5
20260905230001 56 198 0.0 0.0 0.00 0.13 0.00 91 1024.5
20260905225901 56 198 0.0 1.0 0.00 0.13 0.00 91 1024.5
20260905225801 56 198 0.0 1.0 0.00 0.13 0.00 91 1024.5
20260905225702 56 198 0.0 1.0 0.00 0.13 0.00 90 1024.5
20260905225601 56 198 0.0 1.0 0.00 0.13 0.00 90 1024.5
20260905225501 56 198 0.0 2.0 0.00 0.13 0.00 91 1024.5
20260905225401 56 198 0.0 2.0 0.00 0.13 0.00 90 1024.5
20260905225301 56 198 0.0 2.0 0.00 0.13 0.00 90 1024.5
20260905225201 56 198 0.0 2.0 0.00 0.13 0.00 91 1024.5
20260905225101 56 198 0.0 2.0 0.00 0.13 0.00 91 1024.5
20260905225000 56 198 0.0 2.0 0.00 0.13 0.00 91 1024.5
20260905224900 56 198 0.0 2.0 0.00 0.13 0.00 90 1024.5
20260905224800 56 198 0.0 2.0 0.00 0.13 0.00 90 1024.5
20260905224700 56 198 0.0 2.0 0.00 0.13 0.00 90 1024.5
20260905224601 56 198 0.0 2.0 0.00 0.13 0.00 90 1024.4
20260905224501 56 198 0.0 2.0 0.00 0.13 0.00 90 1024.5
20260905224401 56 198 0.0 2.0 0.00 0.13 0.00 90 1024.4
20260905224300 56 198 0.0 2.0 0.00 0.13 0.00 90 1024.4
20260905224201 56 198 0.0 2.0 0.00 0.13 0.00 90 1024.4
20260905224101 56 198 0.0 2.0 0.00 0.13 0.00 89 1024.4
20260905224001 56 198 0.0 2.0 0.00 0.13 0.00 89 1024.4
20260905223920 56 198 0.0 2.0 0.00 0.13 0.00 89 1024.4
20260905223916 56 198 0.0 2.0 0.00 0.13 0.00 89 1024.4
20260905223912 56 213 0.0 2.0 0.00 0.13 0.00 89 1024.4
20260905223600 56 217 0.0 2.0 0.00 0.13 0.00 89 1024.4
20260905223500 56 217 0.0 2.0 0.00 0.13 0.00 89 1024.4
20260905223401 56 217 0.0 2.0 0.00 0.13 0.00 89 1024.4
20260905223301 56 217 0.0 2.0 0.00 0.13 0.00 89 1024.4
20260905223202 56 217 0.0 2.0 0.00 0.13 0.00 89 1024.4
20260905223101 56 241 0.0 1.0 0.00 0.13 0.00 89 1024.4
20260905223001 56 241 0.0 1.0 0.00 0.13 0.00 89 1024.4
20260905222905 56 241 0.0 1.0 0.00 0.13 0.00 89 1024.4
20260905222800 56 241 0.0 1.0 0.00 0.13 0.00 88 1024.4
20260905222701 56 241 0.0 1.0 0.00 0.13 0.00 88 1024.4
20260905222602 56 249 0.0 1.0 0.00 0.13 0.00 88 1024.4
20260905222501 57 257 0.0 1.0 0.00 0.13 0.00 88 1024.4
20260905222403 57 257 0.0 1.0 0.00 0.13 0.00 88 1024.4
20260905222301 57 257 0.0 1.0 0.00 0.13 0.00 88 1024.3
20260905222201 57 257 0.0 1.0 0.00 0.13 0.00 88 1024.4
20260905222101 57 257 0.0 1.0 0.00 0.13 0.00 89 1024.3
20260905222001 57 257 0.0 1.0 0.00 0.13 0.00 89 1024.3
20260905221901 57 257 0.0 1.0 0.00 0.13 0.00 89 1024.3
20260905221801 57 257 0.0 1.0 0.00 0.13 0.00 89 1024.3
20260905221701 57 257 0.0 1.0 0.00 0.13 0.00 89 1024.3
20260905221601 57 257 0.0 1.0 0.00 0.13 0.00 89 1024.3
20260905221501 57 259 0.0 1.0 0.00 0.13 0.00 88 1024.3
20260905221400 57 259 0.0 2.0 0.00 0.13 0.00 88 1024.3
20260905221301 57 261 0.0 2.0 0.00 0.13 0.00 88 1024.3
20260905221200 57 261 0.0 2.0 0.00 0.13 0.00 88 1024.3
20260905221100 57 261 0.0 2.0 0.00 0.13 0.00 88 1024.3
20260905221001 57 261 0.0 2.0 0.00 0.13 0.00 88 1024.3
20260905220901 57 261 0.0 2.0 0.00 0.13 0.00 88 1024.3
20260905220800 57 261 0.0 2.0 0.00 0.13 0.00 88 1024.3
20260905220701 57 261 0.0 2.0 0.00 0.13 0.00 88 1024.3
20260905220651 58 261 0.0 0.0 0.00 0.13 0.00 87 1024.3
20260905220647 57 261 0.0 2.0 0.00 0.13 0.00 88 1024.3
20260905220642 57 261 0.0 2.0 0.00 0.13 0.00 88 1024.3
20260905220425 57 261 0.0 2.0 0.00 0.13 0.00 88 1024.3
20260905220417 58 261 0.0 0.0 0.00 0.13 0.00 88 1024.3
20260905220413 58 261 0.0 0.0 0.00 0.13 0.00 87 1024.3
20260905220001 58 261 0.0 0.0 0.00 0.13 0.00 88 1024.3
20260905215901 58 261 0.0 0.0 0.00 0.13 0.13 88 1024.2
20260905215801 58 261 0.0 0.0 0.00 0.13 0.13 88 1024.3
20260905215701 58 261 0.0 0.0 0.00 0.13 0.13 88 1024.2
20260905215601 58 261 0.0 0.0 0.00 0.13 0.13 88 1024.3
20260905215501 58 261 0.0 0.0 0.00 0.13 0.13 88 1024.2
20260905215401 58 261 0.0 0.0 0.00 0.13 0.13 88 1024.2
20260905215305 58 261 0.0 0.0 0.00 0.13 0.13 88 1024.2
20260905215202 58 261 0.0 1.0 0.00 0.13 0.13 87 1024.3
20260905215101 58 261 0.0 1.0 0.00 0.13 0.13 87 1024.2
20260905215000 58 262 0.0 1.0 0.00 0.13 0.13 87 1024.2
20260905214901 58 262 0.0 1.0 0.00 0.13 0.13 87 1024.2
20260905214801 58 262 0.0 1.0 0.00 0.13 0.13 87 1024.2
20260905214701 58 262 0.0 1.0 0.00 0.13 0.13 87 1024.2
20260905214601 58 262 0.0 1.0 0.00 0.13 0.13 87 1024.2
20260905214501 58 262 0.0 1.0 0.00 0.13 0.13 87 1024.2
20260905214401 58 261 0.0 1.0 0.00 0.13 0.13 86 1024.2
20260905214301 58 261 0.0 1.0 0.00 0.13 0.13 86 1024.2
20260905214201 58 261 0.0 1.0 0.00 0.13 0.13 86 1024.2
20260905214100 58 261 0.0 1.0 0.00 0.13 0.13 86 1024.2
20260905214000 58 261 0.0 1.0 0.00 0.13 0.13 86 1024.2
20260905213900 58 261 0.0 2.0 0.00 0.13 0.13 86 1024.2
20260905213800 59 261 0.0 2.0 0.00 0.13 0.13 86 1024.2
20260905213700 59 261 0.0 2.0 0.00 0.13 0.13 86 1024.2
20260905213601 59 261 1.0 2.0 0.00 0.13 0.13 86 1024.2
20260905213501 59 261 1.0 2.0 0.00 0.13 0.13 86 1024.1
20260905213402 59 261 1.0 2.0 0.00 0.13 0.13 86 1024.2
20260905213302 59 261 1.0 2.0 0.00 0.13 0.13 86 1024.1
20260905213201 59 262 1.0 2.0 0.00 0.13 0.13 86 1024.1
20260905213101 59 261 1.0 2.0 0.00 0.13 0.13 86 1024.1
20260905213001 59 261 1.0 2.0 0.00 0.13 0.13 86 1024.1
20260905212901 59 261 1.0 2.0 0.00 0.13 0.13 86 1024.1
20260905212802 59 261 1.0 2.0 0.00 0.13 0.13 87 1024.1
20260905212701 59 261 1.0 2.0 0.00 0.13 0.13 87 1024.1
20260905212601 59 261 1.0 2.0 0.00 0.13 0.13 87 1024.1
20260905212501 59 261 0.0 2.0 0.00 0.13 0.13 87 1024.1
20260905212401 59 261 0.0 2.0 0.00 0.13 0.13 87 1024.1
20260905212301 59 261 0.0 2.0 0.00 0.13 0.13 87 1024.0
20260905212200 60 261 0.0 2.0 0.00 0.13 0.13 87 1024.0
20260905212100 60 262 0.0 2.0 0.00 0.13 0.13 87 1024.0
20260905212001 60 262 0.0 2.0 0.00 0.13 0.13 87 1024.0
20260905211901 60 262 0.0 0.0 0.00 0.13 0.13 87 1024.0
20260905211800 60 262 0.0 0.0 0.00 0.13 0.13 87 1024.0
20260905211700 60 262 0.0 0.0 0.00 0.13 0.13 87 1024.0
20260905211600 60 262 0.0 0.0 0.00 0.13 0.13 87 1024.0
20260905211501 60 262 0.0 0.0 0.00 0.13 0.13 87 1024.0
20260905211401 60 262 0.0 0.0 0.00 0.13 0.13 87 1024.0
20260905211300 60 262 0.0 0.0 0.00 0.13 0.13 87 1024.0
20260905211201 60 262 0.0 0.0 0.00 0.13 0.13 87 1024.0
20260905211101 60 262 0.0 1.0 0.00 0.13 0.13 87 1024.0
20260905211001 60 262 0.0 1.0 0.00 0.13 0.13 87 1024.1
20260905210901 60 262 0.0 2.0 0.00 0.13 0.13 87 1024.0
20260905210801 60 262 0.0 2.0 0.00 0.13 0.13 87 1024.0
20260905210701 60 262 0.0 2.0 0.00 0.13 0.13 87 1024.0
20260905210601 60 262 0.0 2.0 0.00 0.13 0.13 87 1024.0
20260905210500 60 262 0.0 2.0 0.00 0.13 0.13 87 1024.0
20260905210401 60 262 0.0 2.0 0.00 0.13 0.13 87 1024.0
20260905210302 60 262 0.0 2.0 0.00 0.13 0.13 87 1024.0
20260905210201 60 262 0.0 2.0 0.00 0.13 0.13 87 1024.0
20260905210001 60 262 0.0 2.0 0.00 0.13 0.13 87 1024.0
20260905205901 60 262 1.0 2.0 0.00 0.13 0.13 87 1024.0
20260905205801 60 262 1.0 2.0 0.00 0.13 0.13 87 1023.9
20260905205701 60 262 1.0 2.0 0.00 0.13 0.13 87 1023.9
20260905205601 60 262 1.0 2.0 0.00 0.13 0.13 87 1023.9
20260905205501 60 262 1.0 2.0 0.00 0.13 0.13 87 1023.8
20260905205401 60 262 1.0 2.0 0.00 0.13 0.13 87 1023.9
20260905205301 60 262 1.0 2.0 0.00 0.13 0.13 87 1023.8
20260905205201 60 262 1.0 3.0 0.00 0.13 0.13 87 1023.8
20260905205101 60 262 1.0 4.0 0.00 0.13 0.13 87 1023.8
20260905205001 60 262 1.0 4.0 0.00 0.13 0.13 87 1023.8
20260905204924 60 262 1.0 4.0 0.00 0.13 0.13 87 1023.8
20260905204915 60 262 1.0 4.0 0.00 0.13 0.13 87 1023.9
20260905204911 60 262 1.0 4.0 0.00 0.13 0.13 87 1023.8
20260905204601 60 262 1.0 4.0 0.00 0.13 0.13 87 1023.9
20260905204501 60 262 1.0 4.0 0.00 0.13 0.13 87 1023.9
20260905204424 60 262 1.0 4.0 0.00 0.13 0.13 87 1023.9
20260905204417 60 262 1.0 4.0 0.00 0.13 0.13 87 1023.9
20260905204412 60 261 0.0 4.0 0.00 0.13 0.13 87 1023.9
20260905204101 60 281 0.0 2.0 0.00 0.13 0.13 86 1023.9
20260905204000 60 282 1.0 2.0 0.00 0.13 0.13 86 1024.0
20260905203901 60 282 0.0 2.0 0.00 0.13 0.13 86 1024.0
20260905203800 60 282 0.0 2.0 0.00 0.13 0.13 86 1024.0
20260905203704 61 282 0.0 2.0 0.00 0.13 0.13 86 1024.0
20260905203659 61 282 0.0 2.0 0.00 0.13 0.13 86 1024.0
20260905203557 61 282 0.0 2.0 0.00 0.13 0.13 86 1024.0
20260905203455 61 282 0.0 2.0 0.00 0.13 0.13 85 1024.0
20260905203355 61 282 0.0 2.0 0.00 0.13 0.13 85 1024.0
20260905203253 61 282 0.0 2.0 0.00 0.13 0.13 85 1024.0
20260905203201 61 282 0.0 2.0 0.00 0.13 0.13 86 1024.0
20260905203153 61 282 0.0 2.0 0.00 0.13 0.13 86 1024.0
20260905203051 61 282 0.0 2.0 0.00 0.13 0.13 86 1024.0
20260905202949 61 282 0.0 2.0 0.00 0.13 0.13 85 1023.9
20260905202850 61 281 1.0 2.0 0.00 0.13 0.13 85 1023.9
20260905202749 61 281 1.0 2.0 0.00 0.13 0.13 86 1023.9
20260905202701 61 281 1.0 2.0 0.00 0.13 0.13 86 1023.9
20260905202650 61 281 1.0 2.0 0.00 0.13 0.13 86 1023.9
20260905202549 61 281 1.0 2.0 0.00 0.13 0.13 85 1023.9
20260905202447 61 281 1.0 2.0 0.00 0.13 0.13 86 1023.9
20260905202345 61 281 1.0 2.0 0.00 0.13 0.13 85 1023.9
20260905202244 61 282 0.0 2.0 0.00 0.13 0.13 85 1023.9
20260905202201 61 282 0.0 2.0 0.00 0.13 0.13 85 1023.9
20260905202143 61 282 0.0 2.0 0.00 0.13 0.13 85 1023.9
20260905202043 61 282 0.0 2.0 0.00 0.13 0.13 85 1023.8
20260905201941 61 282 0.0 2.0 0.00 0.13 0.13 85 1023.8
20260905201841 61 282 0.0 2.0 0.00 0.13 0.13 84 1023.8
20260905201739 61 282 0.0 0.0 0.00 0.13 0.13 84 1023.8
20260905201700 61 282 0.0 0.0 0.00 0.13 0.13 84 1023.8
20260905201639 61 282 0.0 0.0 0.00 0.13 0.13 84 1023.8
20260905201539 61 282 0.0 0.0 0.00 0.13 0.13 84 1023.8
20260905201439 61 282 0.0 0.0 0.00 0.13 0.13 84 1023.8
20260905201339 61 282 0.0 0.0 0.00 0.13 0.13 84 1023.8
20260905201237 61 282 0.0 0.0 0.00 0.13 0.13 84 1023.8
20260905201201 61 282 0.0 0.0 0.00 0.13 0.13 84 1023.9
20260905201138 61 282 0.0 0.0 0.00 0.13 0.13 84 1023.9
20260905201035 61 282 0.0 0.0 0.00 0.13 0.13 84 1023.9
20260905200933 62 282 0.0 0.0 0.00 0.13 0.13 84 1023.9
20260905200929 62 282 0.0 0.0 0.00 0.13 0.13 83 1023.8
20260905200919 62 282 0.0 0.0 0.00 0.13 0.13 84 1023.8
20260905200911 62 282 0.0 0.0 0.00 0.13 0.13 83 1023.9
20260905200630 62 282 0.0 0.0 0.00 0.13 0.13 83 1023.8
20260905200529 62 282 0.0 0.0 0.00 0.13 0.13 83 1023.8
20260905200429 62 282 0.0 0.0 0.00 0.13 0.13 83 1023.8
20260905200329 62 282 0.0 0.0 0.00 0.13 0.13 83 1023.8
20260905200201 62 282 0.0 0.0 0.00 0.13 0.13 83 1023.8
20260905200129 62 282 0.0 0.0 0.00 0.13 0.13 83 1023.8
20260905200029 62 282 0.0 0.0 0.00 0.13 0.13 83 1023.8
20260905195929 62 282 0.0 1.0 0.00 0.13 0.13 83 1023.7
20260905195829 62 282 0.0 1.0 0.00 0.13 0.13 83 1023.7
20260905195729 62 282 0.0 2.0 0.00 0.13 0.13 83 1023.8
20260905195701 62 282 0.0 2.0 0.00 0.13 0.13 83 1023.7
20260905195629 62 282 0.0 2.0 0.00 0.13 0.13 83 1023.7
20260905195530 62 282 0.0 2.0 0.00 0.13 0.13 83 1023.7
20260905195429 62 282 0.0 2.0 0.00 0.13 0.13 83 1023.7
20260905195329 62 282 1.0 2.0 0.00 0.13 0.13 83 1023.6
20260905195201 62 282 1.0 2.0 0.00 0.13 0.13 83 1023.7
20260905195129 62 282 1.0 2.0 0.00 0.13 0.13 83 1023.7
20260905195029 62 282 1.0 2.0 0.00 0.13 0.13 83 1023.7
20260905194928 62 282 1.0 2.0 0.00 0.13 0.13 83 1023.8
20260905194828 62 282 1.0 2.0 0.00 0.13 0.13 83 1023.7
20260905194728 62 282 1.0 3.0 0.00 0.13 0.13 83 1023.7
20260905194701 62 282 1.0 3.0 0.00 0.13 0.13 82 1023.6
20260905194629 62 282 1.0 3.0 0.00 0.13 0.13 82 1023.6
20260905194529 62 282 1.0 3.0 0.00 0.13 0.13 82 1023.6
20260905194429 62 282 1.0 3.0 0.00 0.13 0.13 82 1023.6
20260905194329 62 282 1.0 3.0 0.00 0.13 0.13 82 1023.6
20260905194228 62 282 2.0 3.0 0.00 0.13 0.13 82 1023.6
20260905194201 63 282 2.0 3.0 0.00 0.13 0.13 82 1023.6
20260905194125 62 282 2.0 3.0 0.00 0.13 0.13 82 1023.6
20260905194023 63 282 2.0 3.0 0.00 0.13 0.13 82 1023.6
20260905193923 63 282 2.0 3.0 0.00 0.13 0.13 82 1023.6
20260905193822 63 282 2.0 3.0 0.00 0.13 0.13 82 1023.6
20260905193723 63 281 2.0 3.0 0.00 0.13 0.13 82 1023.6
20260905193700 63 308 2.0 3.0 0.00 0.13 0.13 82 1023.6
20260905193619 63 308 2.0 3.0 0.00 0.13 0.13 82 1023.6
20260905193517 63 308 2.0 3.0 0.00 0.13 0.13 82 1023.6
20260905193417 63 308 2.0 3.0 0.00 0.13 0.13 82 1023.6
20260905193317 63 308 2.0 3.0 0.00 0.13 0.13 82 1023.6
20260905193201 63 308 2.0 3.0 0.00 0.13 0.13 82 1023.6
20260905193113 63 308 2.0 3.0 0.00 0.13 0.13 82 1023.6
20260905193013 63 308 2.0 4.0 0.00 0.13 0.13 82 1023.6
20260905192913 63 308 2.0 4.0 0.00 0.13 0.13 82 1023.6
20260905192813 63 308 2.0 4.0 0.00 0.13 0.13 82 1023.6
20260905192701 63 309 2.0 4.0 0.00 0.13 0.13 82 1023.6
20260905192611 63 309 2.0 4.0 0.00 0.13 0.13 82 1023.5
20260905192509 63 309 2.0 4.0 0.00 0.13 0.13 82 1023.5
20260905192409 63 309 2.0 4.0 0.00 0.13 0.13 82 1023.5
20260905192309 63 309 2.0 4.0 0.00 0.13 0.13 82 1023.5
20260905192201 63 309 2.0 5.0 0.00 0.13 0.13 82 1023.5
20260905192109 63 309 2.0 5.0 0.00 0.13 0.13 82 1023.5
20260905192007 63 304 2.0 5.0 0.00 0.13 0.13 82 1023.5
20260905191907 63 304 2.0 5.0 0.00 0.13 0.13 82 1023.5
20260905191806 63 304 2.0 5.0 0.00 0.13 0.13 82 1023.5
20260905191701 63 319 2.0 5.0 0.00 0.13 0.13 82 1023.5
20260905191607 63 318 1.0 5.0 0.00 0.13 0.13 82 1023.4
20260905191505 63 322 1.0 5.0 0.00 0.13 0.13 82 1023.4
20260905191405 63 302 1.0 5.0 0.00 0.13 0.13 81 1023.4
20260905191305 63 301 1.0 5.0 0.00 0.13 0.13 81 1023.4
20260905191201 63 312 1.0 3.0 0.00 0.13 0.13 81 1023.4
20260905191108 63 312 1.0 3.0 0.00 0.13 0.13 81 1023.4
20260905191003 63 346 1.0 3.0 0.00 0.13 0.13 81 1023.4
20260905190903 63 355 1.0 3.0 0.00 0.13 0.13 81 1023.2
20260905190803 63 355 1.0 3.0 0.00 0.13 0.13 81 1023.2
20260905190701 63 355 1.0 3.0 0.00 0.13 0.13 81 1023.2
20260905190656 63 355 2.0 3.0 0.00 0.13 0.13 80 1023.2
20260905190645 63 355 1.0 3.0 0.00 0.13 0.13 81 1023.2
20260905190641 63 355 1.0 3.0 0.00 0.13 0.13 81 1023.2
20260905190426 63 355 1.0 3.0 0.00 0.13 0.13 80 1023.2
20260905190422 63 355 1.0 3.0 0.00 0.13 0.13 80 1023.2
20260905190414 63 355 2.0 3.0 0.00 0.13 0.13 80 1023.2
20260905190100 63 355 2.0 3.0 0.00 0.13 0.13 80 1023.1
20260905185958 64 355 2.0 3.0 0.00 0.13 0.13 80 1023.1
20260905185921 64 333 2.0 3.0 0.00 0.13 0.13 80 1023.1
20260905185916 64 333 2.0 4.0 0.00 0.13 0.13 80 1023.1
20260905185657 64 333 2.0 4.0 0.00 0.13 0.13 80 1023.1
20260905185555 64 309 2.0 4.0 0.00 0.13 0.13 79 1023.1
20260905185452 64 336 2.0 4.0 0.00 0.13 0.13 79 1023.1
20260905185419 64 325 2.0 4.0 0.00 0.13 0.13 79 1023.0
20260905185415 64 325 2.0 4.0 0.00 0.13 0.13 79 1023.0
20260905185152 64 325 2.0 4.0 0.00 0.13 0.13 79 1023.0
20260905185049 64 325 2.0 4.0 0.00 0.13 0.13 79 1023.0
20260905184946 64 325 2.0 4.0 0.00 0.13 0.13 78 1023.0
20260905184924 64 325 1.0 3.0 0.00 0.13 0.13 78 1022.9
20260905184921 64 325 2.0 4.0 0.00 0.13 0.13 78 1023.0
20260905184916 64 325 1.0 4.0 0.00 0.13 0.13 78 1023.0
20260905184645 64 325 1.0 3.0 0.00 0.13 0.13 78 1022.9
20260905184542 64 325 1.0 3.0 0.00 0.13 0.13 78 1022.9
20260905184440 64 325 1.0 3.0 0.00 0.13 0.13 78 1022.9
20260905184339 64 325 1.0 3.0 0.00 0.13 0.13 78 1022.9
20260905184239 64 325 1.0 2.0 0.00 0.13 0.13 78 1022.9
20260905184201 64 325 1.0 2.0 0.00 0.13 0.13 78 1022.9
20260905184139 64 325 1.0 2.0 0.00 0.13 0.13 78 1022.9
20260905184038 64 325 1.0 3.0 0.00 0.13 0.13 78 1022.8
20260905183934 65 325 1.0 4.0 0.00 0.13 0.13 78 1022.8
20260905183829 65 325 1.0 4.0 0.00 0.13 0.13 77 1022.8
20260905183729 65 325 1.0 4.0 0.00 0.13 0.13 77 1022.7
20260905183700 65 325 1.0 4.0 0.00 0.13 0.13 77 1022.8
20260905183629 65 325 1.0 4.0 0.00 0.13 0.13 77 1022.8
20260905183530 65 325 2.0 4.0 0.00 0.13 0.13 77 1022.8
20260905183429 65 325 2.0 4.0 0.00 0.13 0.13 77 1022.8
20260905183328 65 325 2.0 4.0 0.00 0.13 0.13 77 1022.8
20260905183201 65 325 2.0 4.0 0.00 0.13 0.13 77 1022.8
20260905183129 65 325 2.0 5.0 0.00 0.13 0.13 77 1022.8
20260905183029 65 302 2.0 5.0 0.00 0.13 0.13 77 1022.7
20260905182929 65 302 2.0 5.0 0.00 0.13 0.13 77 1022.7
20260905182921 65 298 2.0 5.0 0.00 0.13 0.13 76 1022.7
20260905182917 65 296 2.0 5.0 0.00 0.13 0.13 76 1022.7
20260905182629 65 296 2.0 5.0 0.00 0.13 0.13 76 1022.7
20260905182529 65 307 2.0 5.0 0.00 0.13 0.13 76 1022.7
20260905182429 65 325 2.0 5.0 0.00 0.13 0.13 76 1022.7
20260905182329 65 302 2.0 5.0 0.00 0.13 0.13 76 1022.7
20260905182229 65 304 3.0 7.0 0.00 0.13 0.13 76 1022.7
20260905182201 65 315 3.0 7.0 0.00 0.13 0.13 76 1022.7
20260905182129 65 301 3.0 7.0 0.00 0.13 0.13 76 1022.7
20260905182029 65 298 3.0 7.0 0.00 0.13 0.13 76 1022.6
20260905181929 65 294 3.0 10.0 0.00 0.13 0.13 76 1022.6
20260905181829 66 294 3.0 10.0 0.00 0.13 0.13 75 1022.6
20260905181729 66 269 4.0 10.0 0.00 0.13 0.13 75 1022.6
20260905181700 66 265 4.0 10.0 0.00 0.13 0.13 75 1022.6
20260905181624 66 265 4.0 10.0 0.00 0.13 0.13 75 1022.5
20260905181524 66 264 4.0 10.0 0.00 0.13 0.13 75 1022.5
20260905181425 66 304 4.0 10.0 0.00 0.13 0.13 75 1022.5
20260905181325 66 276 4.0 10.0 0.00 0.13 0.13 75 1022.5
20260905181223 66 281 5.0 10.0 0.00 0.13 0.13 75 1022.5
20260905181201 66 270 5.0 10.0 0.00 0.13 0.13 75 1022.5
20260905181117 66 289 5.0 10.0 0.00 0.13 0.13 75 1022.5
20260905181017 66 266 5.0 10.0 0.00 0.13 0.13 74 1022.4
20260905180917 66 267 5.0 11.0 0.00 0.13 0.13 74 1022.4
20260905180817 66 235 5.0 11.0 0.00 0.13 0.13 74 1022.4
20260905180717 66 278 5.0 11.0 0.00 0.13 0.13 74 1022.4
20260905180700 66 265 5.0 11.0 0.00 0.13 0.13 74 1022.4
20260905180651 66 252 4.0 11.0 0.00 0.13 0.13 74 1022.3
20260905180645 66 244 5.0 11.0 0.00 0.13 0.13 74 1022.3
20260905180641 66 217 4.0 11.0 0.00 0.13 0.13 74 1022.3
20260905180423 66 263 4.0 11.0 0.00 0.13 0.13 74 1022.3
20260905180419 66 266 4.0 11.0 0.00 0.13 0.13 74 1022.3
20260905180415 66 254 4.0 11.0 0.00 0.13 0.13 74 1022.3
20260905180113 66 227 4.0 11.0 0.00 0.13 0.13 73 1022.2
20260905180013 66 289 4.0 9.0 0.00 0.13 0.13 73 1022.3
20260905175913 66 205 4.0 8.0 0.00 0.13 0.13 73 1022.2
20260905175811 66 251 4.0 8.0 0.00 0.13 0.13 73 1022.3
20260905175705 66 259 3.0 8.0 0.00 0.13 0.13 73 1022.3
20260905175611 66 261 4.0 8.0 0.00 0.13 0.13 73 1022.3
20260905175511 66 246 4.0 8.0 0.00 0.13 0.13 73 1022.3
20260905175409 67 266 4.0 8.0 0.00 0.13 0.13 72 1022.2
20260905175309 67 233 4.0 8.0 0.00 0.13 0.13 72 1022.2
20260905175209 67 202 5.0 9.0 0.00 0.13 0.13 72 1022.2
20260905175203 67 262 5.0 9.0 0.00 0.13 0.13 72 1022.2
20260905175110 67 241 5.0 10.0 0.00 0.13 0.13 72 1022.1
20260905175008 67 271 5.0 10.0 0.00 0.13 0.13 71 1022.1
20260905174906 67 236 6.0 10.0 0.00 0.13 0.13 71 1022.1
20260905174807 67 270 6.0 10.0 0.00 0.13 0.13 71 1022.1
20260905174701 67 240 6.0 10.0 0.00 0.13 0.13 71 1022.1
20260905174605 67 224 6.0 10.0 0.00 0.13 0.13 71 1022.0
20260905174502 67 233 6.0 10.0 0.00 0.13 0.13 71 1022.0
20260905174403 67 217 6.0 11.0 0.00 0.13 0.13 71 1022.0
20260905174303 67 261 5.0 11.0 0.00 0.13 0.13 71 1022.0
20260905174207 67 234 5.0 11.0 0.00 0.13 0.13 70 1022.0
20260905174203 67 251 5.0 11.0 0.00 0.13 0.13 70 1022.0
20260905174103 67 225 5.0 11.0 0.00 0.13 0.13 70 1021.9
20260905174001 67 216 5.0 12.0 0.00 0.13 0.13 70 1021.9
20260905173901 67 256 6.0 12.0 0.00 0.13 0.13 70 1021.9
20260905173801 67 213 6.0 15.0 0.00 0.13 0.13 70 1021.9
20260905173702 67 261 6.0 15.0 0.00 0.13 0.13 70 1021.9
20260905173601 67 242 5.0 15.0 0.00 0.13 0.13 70 1021.9
20260905173501 67 244 6.0 15.0 0.00 0.13 0.13 70 1021.9
20260905173401 67 206 6.0 15.0 0.00 0.13 0.13 70 1021.8
20260905173301 67 225 6.0 15.0 0.00 0.13 0.13 70 1021.8
20260905173201 67 224 6.0 15.0 0.00 0.13 0.13 70 1021.8
20260905173101 67 216 6.0 15.0 0.00 0.13 0.13 70 1021.8
20260905173001 67 212 6.0 15.0 0.00 0.13 0.13 70 1021.8
20260905172901 67 251 6.0 15.0 0.00 0.13 0.13 69 1021.8
20260905172801 68 240 6.0 11.0 0.00 0.13 0.13 69 1021.8
20260905172700 68 245 7.0 11.0 0.00 0.13 0.13 69 1021.8
20260905172601 68 199 7.0 11.0 0.00 0.13 0.13 69 1021.8
20260905172501 68 273 7.0 11.0 0.00 0.13 0.13 69 1021.8
20260905172401 68 206 7.0 11.0 0.00 0.13 0.13 69 1021.7
20260905172300 68 240 7.0 12.0 0.00 0.13 0.13 68 1021.8
20260905172200 68 242 7.0 12.0 0.00 0.13 0.13 68 1021.8
20260905172100 68 247 6.0 12.0 0.00 0.13 0.13 69 1021.8
20260905172000 68 202 6.0 12.0 0.00 0.13 0.13 68 1021.7
20260905171901 68 243 6.0 12.0 0.00 0.13 0.13 68 1021.7
20260905171801 68 225 6.0 12.0 0.00 0.13 0.13 68 1021.7
20260905171701 68 223 6.0 12.0 0.00 0.13 0.13 68 1021.7
20260905171601 68 211 6.0 14.0 0.00 0.13 0.13 68 1021.7
20260905171501 68 223 6.0 14.0 0.00 0.13 0.13 67 1021.7
20260905171401 69 200 6.0 14.0 0.00 0.13 0.13 67 1021.7
20260905171301 69 202 6.0 14.0 0.00 0.13 0.13 67 1021.6
20260905171200 69 225 7.0 14.0 0.00 0.13 0.13 67 1021.6
20260905171101 69 242 7.0 14.0 0.00 0.13 0.13 67 1021.6
20260905171001 69 233 7.0 14.0 0.00 0.13 0.13 66 1021.6
20260905170902 69 192 7.0 14.0 0.00 0.13 0.13 67 1021.6
20260905170800 69 268 7.0 14.0 0.00 0.13 0.13 66 1021.6
20260905170701 69 225 7.0 14.0 0.00 0.13 0.13 66 1021.5
20260905170601 69 209 7.0 15.0 0.00 0.13 0.13 66 1021.6
20260905170501 69 236 7.0 15.0 0.00 0.13 0.13 65 1021.6
20260905170419 69 221 7.0 15.0 0.00 0.13 0.13 65 1021.6
20260905170415 69 220 7.0 15.0 0.00 0.13 0.13 65 1021.6
20260905170411 69 229 7.0 15.0 0.00 0.13 0.13 65 1021.7
20260905170101 69 228 7.0 15.0 0.00 0.13 0.13 65 1021.7
20260905170001 69 226 6.0 15.0 0.00 0.13 0.13 65 1021.6
20260905165920 69 198 6.0 15.0 0.00 0.13 0.13 65 1021.6
20260905165916 69 219 6.0 15.0 0.00 0.13 0.13 65 1021.6
20260905165912 70 219 6.0 15.0 0.00 0.13 0.13 64 1021.7
20260905165601 70 217 6.0 16.0 0.00 0.13 0.13 64 1021.7
20260905165500 70 212 7.0 16.0 0.00 0.13 0.13 64 1021.6
20260905165400 70 247 6.0 16.0 0.00 0.13 0.13 64 1021.7
20260905165300 70 230 7.0 16.0 0.00 0.13 0.13 63 1021.7
20260905165201 70 221 7.0 16.0 0.00 0.13 0.13 63 1021.8
20260905165101 70 240 7.0 16.0 0.00 0.13 0.13 64 1021.6
20260905165001 70 217 7.0 16.0 0.00 0.13 0.13 63 1021.6
20260905164920 70 270 8.0 16.0 0.00 0.13 0.13 63 1021.6
20260905164916 70 251 8.0 16.0 0.00 0.13 0.13 63 1021.6
20260905164912 70 233 8.0 16.0 0.00 0.13 0.13 63 1021.6
20260905164657 70 270 8.0 16.0 0.00 0.13 0.13 63 1021.6
20260905164557 70 196 8.0 16.0 0.00 0.13 0.13 63 1021.6
20260905164457 71 219 8.0 16.0 0.00 0.13 0.13 63 1021.6
20260905164423 71 226 8.0 16.0 0.00 0.13 0.13 64 1021.6
20260905164417 71 215 8.0 16.0 0.00 0.13 0.13 63 1021.6
20260905164413 71 236 8.0 16.0 0.00 0.13 0.13 63 1021.7
20260905164157 71 226 8.0 16.0 0.00 0.13 0.13 64 1021.6
20260905164054 71 240 8.0 16.0 0.00 0.13 0.13 64 1021.7
20260905163955 71 238 8.0 16.0 0.00 0.13 0.13 64 1021.6
20260905163855 71 222 8.0 16.0 0.00 0.13 0.13 64 1021.6
20260905163755 71 246 7.0 16.0 0.00 0.13 0.13 64 1021.6
20260905163701 71 194 7.0 15.0 0.00 0.13 0.13 64 1021.6
20260905163655 71 217 7.0 15.0 0.00 0.13 0.13 65 1021.6
20260905163554 71 236 7.0 15.0 0.00 0.13 0.13 65 1021.6
20260905163453 71 228 7.0 15.0 0.00 0.13 0.13 65 1021.6
20260905163421 71 256 7.0 14.0 0.00 0.13 0.13 65 1021.6
20260905163417 71 255 7.0 14.0 0.00 0.13 0.13 65 1021.6
20260905163413 71 261 7.0 14.0 0.00 0.13 0.13 65 1021.5
20260905163153 71 233 7.0 14.0 0.00 0.13 0.13 65 1021.6
20260905163053 71 211 7.0 14.0 0.00 0.13 0.13 64 1021.6
20260905162953 71 276 7.0 14.0 0.00 0.13 0.13 65 1021.6
20260905162853 71 188 7.0 14.0 0.00 0.13 0.13 64 1021.3
20260905162753 72 265 7.0 14.0 0.00 0.13 0.13 64 1021.3
20260905162701 72 217 7.0 14.0 0.00 0.13 0.13 64 1021.5
20260905162650 72 209 7.0 14.0 0.00 0.13 0.13 64 1021.5
20260905162550 72 213 7.0 14.0 0.00 0.13 0.13 65 1021.5
20260905162448 72 282 7.0 14.0 0.00 0.13 0.13 65 1021.5
20260905162348 72 237 8.0 14.0 0.00 0.13 0.13 64 1021.5
20260905162248 72 244 8.0 15.0 0.00 0.13 0.13 65 1021.3
20260905162200 72 213 8.0 15.0 0.00 0.13 0.13 65 1021.3
20260905162149 72 240 8.0 15.0 0.00 0.13 0.13 65 1021.3
20260905162048 72 229 8.0 15.0 0.00 0.13 0.13 67 1021.3
20260905161949 72 282 8.0 15.0 0.00 0.13 0.13 69 1021.3
20260905161849 72 304 8.0 15.0 0.00 0.13 0.13 69 1021.3
20260905161749 72 200 8.0 15.0 0.00 0.13 0.13 70 1021.3
20260905161701 72 225 8.0 15.0 0.00 0.13 0.13 70 1021.3
20260905161649 72 257 8.0 15.0 0.00 0.13 0.13 70 1021.3
20260905161548 72 260 8.0 15.0 0.00 0.13 0.13 70 1021.3
20260905161448 72 230 8.0 15.0 0.00 0.13 0.13 70 1021.3
20260905161349 72 261 7.0 15.0 0.00 0.13 0.13 69 1021.2
20260905161249 72 274 7.0 15.0 0.00 0.13 0.13 69 1021.3
20260905161201 72 227 7.0 15.0 0.00 0.13 0.13 69 1021.3
20260905161149 72 242 7.0 15.0 0.00 0.13 0.13 69 1021.3
20260905161049 72 279 7.0 15.0 0.00 0.13 0.13 69 1021.2
20260905160949 72 215 7.0 15.0 0.00 0.13 0.13 69 1021.2
20260905160920 73 275 7.0 15.0 0.00 0.13 0.13 68 1021.2
20260905160916 72 219 7.0 15.0 0.00 0.13 0.13 69 1021.2
20260905160912 73 237 7.0 15.0 0.00 0.13 0.13 69 1021.2
20260905160648 73 219 7.0 15.0 0.00 0.13 0.13 68 1021.2
20260905160548 73 287 7.0 15.0 0.00 0.13 0.13 68 1021.2
20260905160442 73 257 8.0 14.0 0.00 0.13 0.13 68 1021.1
20260905160423 73 200 8.0 16.0 0.00 0.13 0.13 68 1021.2
20260905160417 73 246 8.0 16.0 0.00 0.13 0.13 68 1021.1
20260905160413 73 213 8.0 16.0 0.00 0.13 0.13 68 1021.1
20260905160143 73 224 8.0 16.0 0.00 0.13 0.13 68 1021.2
20260905160042 73 223 8.0 16.0 0.00 0.13 0.13 68 1021.2
20260905155942 73 254 8.0 16.0 0.00 0.13 0.13 69 1021.1
20260905155842 73 233 8.0 16.0 0.00 0.13 0.13 68 1021.1
20260905155743 73 276 8.0 16.0 0.00 0.13 0.13 68 1021.0
20260905155701 73 269 8.0 16.0 0.00 0.13 0.13 68 1021.1
20260905155643 73 221 8.0 16.0 0.00 0.13 0.13 68 1021.1
20260905155543 73 243 8.0 16.0 0.00 0.13 0.13 67 1021.1
20260905155443 73 224 7.0 16.0 0.00 0.13 0.13 67 1021.1
20260905155343 73 261 8.0 16.0 0.00 0.13 0.13 67 1021.1
20260905155238 73 261 8.0 16.0 0.00 0.13 0.13 67 1021.0
20260905155201 73 224 8.0 16.0 0.00 0.13 0.13 68 1021.1
20260905155138 73 190 8.0 16.0 0.00 0.13 0.13 68 1021.1
20260905155039 73 239 8.0 16.0 0.00 0.13 0.13 68 1021.0
20260905154939 73 213 7.0 16.0 0.00 0.13 0.13 67 1021.0
20260905154838 73 265 8.0 16.0 0.00 0.13 0.13 68 1021.0
20260905154738 73 260 7.0 16.0 0.00 0.13 0.13 67 1021.0
20260905154700 73 232 7.0 16.0 0.00 0.13 0.13 68 1021.0
20260905154638 73 266 7.0 16.0 0.00 0.13 0.13 68 1021.0
20260905154538 73 230 6.0 16.0 0.00 0.13 0.13 67 1021.0
20260905154438 73 211 6.0 16.0 0.00 0.13 0.13 67 1021.1
20260905154338 73 225 5.0 15.0 0.00 0.13 0.13 67 1021.0
20260905154238 73 263 5.0 13.0 0.00 0.13 0.13 67 1021.0
20260905154200 73 225 5.0 13.0 0.00 0.13 0.13 67 1021.1
20260905154139 73 236 5.0 13.0 0.00 0.13 0.13 67 1021.1
20260905154039 73 213 4.0 11.0 0.00 0.13 0.13 66 1021.1
20260905153939 73 200 4.0 11.0 0.00 0.13 0.13 66 1021.1
20260905153838 72 238 4.0 11.0 0.00 0.13 0.13 65 1021.1
20260905153738 72 221 4.0 9.0 0.00 0.13 0.13 65 1021.1
20260905153702 72 220 4.0 9.0 0.00 0.13 0.13 64 1021.0
20260905153638 72 219 4.0 9.0 0.00 0.13 0.13 64 1021.0
20260905153538 72 225 4.0 9.0 0.00 0.13 0.13 64 1021.0
20260905153438 72 222 4.0 9.0 0.00 0.13 0.13 64 1021.1
20260905153334 73 252 4.0 9.0 0.00 0.13 0.13 64 1021.0
20260905153234 73 288 3.0 9.0 0.00 0.13 0.13 64 1021.1
20260905153200 73 281 3.0 7.0 0.00 0.13 0.13 64 1021.1
20260905153135 73 256 3.0 7.0 0.00 0.13 0.13 64 1021.1
20260905153034 73 242 3.0 7.0 0.00 0.13 0.13 64 1021.1
20260905152935 73 260 3.0 7.0 0.00 0.13 0.13 63 1021.1
20260905152835 73 252 3.0 7.0 0.00 0.13 0.13 63 1021.1
20260905152735 73 301 4.0 8.0 0.00 0.13 0.13 62 1021.1
20260905152701 73 306 4.0 8.0 0.00 0.13 0.13 62 1021.1
20260905152635 73 229 4.0 10.0 0.00 0.13 0.13 63 1021.1
20260905152534 73 229 4.0 10.0 0.00 0.13 0.13 63 1021.1
20260905152434 73 262 5.0 11.0 0.00 0.13 0.13 63 1021.1
20260905152422 74 263 6.0 11.0 0.00 0.13 0.13 61 1021.0
20260905152416 73 254 5.0 11.0 0.00 0.13 0.13 62 1021.1
20260905152413 74 245 5.0 11.0 0.00 0.13 0.13 61 1021.0
20260905152134 74 225 6.0 11.0 0.00 0.13 0.13 61 1021.0
20260905152035 74 229 6.0 12.0 0.00 0.13 0.13 61 1021.0
20260905151934 74 289 6.0 12.0 0.00 0.13 0.13 61 1021.0
20260905151834 74 248 6.0 12.0 0.00 0.13 0.13 61 1021.0
20260905151734 74 251 6.0 12.0 0.00 0.13 0.13 60 1021.0
20260905151701 74 241 6.0 12.0 0.00 0.13 0.13 60 1021.0
20260905151634 74 306 6.0 12.0 0.00 0.13 0.13 60 1021.0
20260905151538 74 218 6.0 12.0 0.00 0.13 0.13 59 1021.0
20260905151431 74 242 6.0 12.0 0.00 0.13 0.13 59 1021.0
20260905151331 74 286 6.0 12.0 0.00 0.13 0.13 59 1021.0
20260905151230 74 277 6.0 12.0 0.00 0.13 0.13 60 1021.0
20260905151201 74 250 6.0 12.0 0.00 0.13 0.13 60 1021.0
20260905151129 74 228 6.0 12.0 0.00 0.13 0.13 59 1021.0
20260905151029 74 264 7.0 13.0 0.00 0.13 0.13 59 1021.0
20260905150929 74 284 7.0 14.0 0.00 0.13 0.13 58 1021.1
20260905150828 74 235 7.0 14.0 0.00 0.13 0.13 59 1021.1
20260905150728 74 231 7.0 14.0 0.00 0.13 0.13 59 1021.1
20260905150701 74 220 7.0 14.0 0.00 0.13 0.13 59 1021.1
20260905150628 74 257 7.0 14.0 0.00 0.13 0.13 59 1021.1
20260905150532 74 221 7.0 14.0 0.00 0.13 0.13 59 1021.1
20260905150429 74 225 7.0 14.0 0.00 0.13 0.13 58 1021.1
20260905150329 74 229 7.0 15.0 0.00 0.13 0.13 58 1021.1
20260905150228 74 226 7.0 15.0 0.00 0.13 0.13 58 1021.1
20260905150201 74 255 7.0 15.0 0.00 0.13 0.13 58 1021.1
20260905150128 74 225 7.0 15.0 0.00 0.13 0.13 58 1021.1
20260905150030 74 225 7.0 15.0 0.00 0.13 0.13 59 1021.2
20260905145928 74 260 7.0 15.0 0.00 0.13 0.13 58 1021.1
20260905145828 74 285 7.0 15.0 0.00 0.13 0.13 58 1021.0
20260905145729 74 238 7.0 15.0 0.00 0.13 0.13 58 1021.1
20260905145700 74 257 7.0 15.0 0.00 0.13 0.13 58 1021.0
20260905145629 74 231 7.0 15.0 0.00 0.13 0.13 57 1021.1
20260905145528 74 225 7.0 15.0 0.00 0.13 0.13 57 1021.1
20260905145426 74 248 7.0 15.0 0.00 0.13 0.13 58 1021.1
20260905145326 74 252 6.0 14.0 0.00 0.13 0.13 57 1021.0
20260905145226 75 223 6.0 14.0 0.00 0.13 0.13 56 1021.0
20260905145201 75 227 7.0 14.0 0.00 0.13 0.13 56 1021.0
20260905145126 75 207 7.0 14.0 0.00 0.13 0.13 57 1021.0
20260905145026 75 234 7.0 14.0 0.00 0.13 0.13 58 1021.0
20260905144926 75 214 6.0 14.0 0.00 0.13 0.13 58 1021.0
20260905144826 75 233 6.0 11.0 0.00 0.13 0.13 57 1021.0
20260905144726 75 213 6.0 11.0 0.00 0.13 0.13 57 1021.1
20260905144701 75 244 7.0 11.0 0.00 0.13 0.13 57 1021.0
20260905144627 75 210 7.0 11.0 0.00 0.13 0.13 58 1021.0
20260905144525 75 211 6.0 11.0 0.00 0.13 0.13 58 1021.0
20260905144424 75 284 6.0 11.0 0.00 0.13 0.13 58 1021.1
20260905144319 75 207 6.0 11.0 0.00 0.13 0.13 56 1021.1
20260905144219 75 221 6.0 11.0 0.00 0.13 0.13 56 1021.0
20260905144201 75 272 6.0 11.0 0.00 0.13 0.13 56 1021.0
20260905144118 75 265 6.0 11.0 0.00 0.13 0.13 55 1021.1
20260905144019 76 231 6.0 11.0 0.00 0.13 0.13 55 1021.0
20260905143918 76 233 6.0 11.0 0.00 0.13 0.13 57 1021.1
20260905143819 76 262 6.0 12.0 0.00 0.13 0.13 56 1021.1
20260905143716 76 225 6.0 12.0 0.00 0.13 0.13 56 1021.1
20260905143700 76 250 6.0 12.0 0.00 0.13 0.13 56 1021.1
20260905143614 76 221 6.0 12.0 0.00 0.13 0.13 56 1021.1
20260905143514 76 212 6.0 12.0 0.00 0.13 0.13 56 1021.1
20260905143414 76 281 6.0 12.0 0.00 0.13 0.13 55 1021.1
20260905143314 76 285 6.0 12.0 0.00 0.13 0.13 55 1021.1
20260905143215 76 269 6.0 12.0 0.00 0.13 0.13 56 1021.2
20260905143200 76 247 6.0 12.0 0.00 0.13 0.13 56 1021.2
20260905143115 76 259 6.0 12.0 0.00 0.13 0.13 55 1021.2
20260905143013 76 255 6.0 13.0 0.00 0.13 0.13 56 1021.2
20260905142913 76 295 6.0 13.0 0.00 0.13 0.13 55 1021.2
20260905142811 76 210 7.0 13.0 0.00 0.13 0.13 57 1021.1
20260905142701 76 229 7.0 13.0 0.00 0.13 0.13 55 1021.1
20260905142608 76 215 7.0 13.0 0.00 0.13 0.13 54 1021.2
20260905142507 76 260 7.0 13.0 0.00 0.13 0.13 54 1021.1
20260905142407 76 243 7.0 13.0 0.00 0.13 0.13 54 1021.2
20260905142307 76 342 8.0 13.0 0.00 0.13 0.13 53 1021.1
20260905142206 76 280 8.0 13.0 0.00 0.13 0.13 54 1021.2
20260905142200 76 302 8.0 13.0 0.00 0.13 0.13 54 1021.2
20260905142106 76 270 8.0 13.0 0.00 0.13 0.13 55 1021.1
20260905142004 76 257 8.0 13.0 0.00 0.13 0.13 54 1021.1
20260905141925 76 254 7.0 13.0 0.00 0.13 0.13 54 1021.1
20260905141919 76 243 8.0 13.0 0.00 0.13 0.13 54 1021.1
20260905141915 76 219 8.0 13.0 0.00 0.13 0.13 54 1021.2
20260905141911 76 235 7.0 13.0 0.00 0.13 0.13 54 1021.1
20260905141603 76 244 7.0 13.0 0.00 0.13 0.13 55 1021.1
20260905141502 76 256 8.0 13.0 0.00 0.13 0.13 53 1021.1
20260905141420 76 257 7.0 13.0 0.00 0.13 0.13 53 1021.2
20260905141416 76 271 7.0 13.0 0.00 0.13 0.13 54 1021.2
20260905141412 76 290 7.0 13.0 0.00 0.13 0.13 54 1021.2
20260905141101 76 257 6.0 13.0 0.00 0.13 0.13 53 1021.2
20260905141001 75 264 6.0 13.0 0.00 0.13 0.13 55 1021.2
20260905140901 75 232 6.0 11.0 0.00 0.13 0.13 55 1021.2
20260905140801 75 219 6.0 13.0 0.00 0.13 0.13 55 1021.2
20260905140701 75 233 7.0 13.0 0.00 0.13 0.13 55 1021.3
20260905140601 75 273 7.0 13.0 0.00 0.13 0.13 55 1021.3
20260905140501 75 211 7.0 13.0 0.00 0.13 0.13 56 1021.3
20260905140401 75 257 7.0 13.0 0.00 0.13 0.13 56 1021.3
20260905140301 75 225 7.0 13.0 0.00 0.13 0.13 54 1021.3
20260905140201 75 217 8.0 13.0 0.00 0.13 0.13 54 1021.3
20260905140001 75 284 8.0 14.0 0.00 0.13 0.13 55 1021.3
20260905135901 75 234 8.0 14.0 0.00 0.13 0.13 56 1021.3
20260905135801 75 278 8.0 14.0 0.00 0.13 0.13 55 1021.3
20260905135701 75 239 8.0 14.0 0.00 0.13 0.13 54 1021.3
20260905135601 75 219 8.0 14.0 0.00 0.13 0.13 55 1021.3
20260905135506 75 260 8.0 14.0 0.00 0.13 0.13 55 1021.3
20260905135400 75 286 7.0 14.0 0.00 0.13 0.13 55 1021.3
20260905135300 75 269 8.0 14.0 0.00 0.13 0.13 54 1021.3
20260905135205 75 260 7.0 14.0 0.00 0.13 0.13 55 1021.2
20260905135201 75 260 7.0 14.0 0.00 0.13 0.13 55 1021.2
20260905135101 75 292 7.0 14.0 0.00 0.13 0.13 55 1021.3
20260905135003 75 284 7.0 13.0 0.00 0.13 0.13 55 1021.3
20260905134857 75 232 6.0 13.0 0.00 0.13 0.13 56 1021.3
20260905134756 75 238 7.0 13.0 0.00 0.13 0.13 55 1021.3
20260905134700 75 257 6.0 13.0 0.00 0.13 0.13 56 1021.5
20260905134656 75 248 6.0 13.0 0.00 0.13 0.13 56 1021.5
20260905134556 75 271 6.0 13.0 0.00 0.13 0.13 55 1021.3
20260905134457 75 272 6.0 13.0 0.00 0.13 0.13 56 1021.3
20260905134350 75 272 6.0 13.0 0.00 0.13 0.13 56 1021.3
20260905134248 75 280 6.0 13.0 0.00 0.13 0.13 56 1021.5
20260905134202 75 226 6.0 11.0 0.00 0.13 0.13 56 1021.3
20260905134149 75 238 6.0 11.0 0.00 0.13 0.13 57 1021.3
20260905134048 75 225 7.0 11.0 0.00 0.13 0.13 56 1021.3
20260905133951 75 292 7.0 11.0 0.00 0.13 0.13 57 1021.3
20260905133844 75 251 8.0 12.0 0.00 0.13 0.13 56 1021.3
20260905133744 75 290 7.0 12.0 0.00 0.13 0.13 56 1021.3
20260905133701 75 287 7.0 12.0 0.00 0.13 0.13 57 1021.5
20260905133644 75 264 7.0 12.0 0.00 0.13 0.13 57 1021.5
20260905133544 74 269 7.0 12.0 0.00 0.13 0.13 57 1021.3
20260905133441 74 297 7.0 12.0 0.00 0.13 0.13 56 1021.3
20260905133421 74 310 7.0 12.0 0.00 0.13 0.13 57 1021.3
20260905133416 74 283 7.0 12.0 0.00 0.13 0.13 57 1021.5
20260905133412 74 306 7.0 12.0 0.00 0.13 0.13 57 1021.5
20260905133136 74 278 7.0 12.0 0.00 0.13 0.13 56 1021.3
20260905133036 74 241 7.0 12.0 0.00 0.13 0.13 56 1021.5
20260905132936 74 260 6.0 12.0 0.00 0.13 0.13 58 1021.3
20260905132836 74 281 6.0 11.0 0.00 0.13 0.13 59 1021.5
20260905132736 74 275 6.0 12.0 0.00 0.13 0.13 60 1021.3
20260905132701 74 260 6.0 12.0 0.00 0.13 0.13 60 1021.3
20260905132634 74 267 6.0 12.0 0.00 0.13 0.13 60 1021.3
20260905132535 74 285 6.0 12.0 0.00 0.13 0.13 59 1021.3
20260905132434 74 209 6.0 12.0 0.00 0.13 0.13 60 1021.3
20260905132334 74 261 6.0 12.0 0.00 0.13 0.13 60 1021.3
20260905132235 74 306 6.0 12.0 0.00 0.13 0.13 61 1021.3
20260905132201 73 255 6.0 12.0 0.00 0.13 0.13 60 1021.5
20260905132132 73 281 6.0 13.0 0.00 0.13 0.13 60 1021.5
20260905132032 73 233 6.0 13.0 0.00 0.13 0.13 60 1021.3
20260905131932 73 229 6.0 13.0 0.00 0.13 0.13 59 1021.5
20260905131832 73 279 7.0 13.0 0.00 0.13 0.13 59 1021.5
20260905131732 73 221 7.0 13.0 0.00 0.13 0.13 60 1021.6
20260905131700 73 288 7.0 13.0 0.00 0.13 0.13 60 1021.6
20260905131632 73 210 7.0 14.0 0.00 0.13 0.13 60 1021.6
20260905131530 73 227 7.0 14.0 0.00 0.13 0.13 60 1021.6
20260905131429 73 274 7.0 14.0 0.00 0.13 0.13 59 1021.5
20260905131423 73 271 7.0 14.0 0.00 0.13 0.13 59 1021.5
20260905131416 73 281 7.0 14.0 0.00 0.13 0.13 58 1021.3
20260905131412 73 284 7.0 14.0 0.00 0.13 0.13 59 1021.5
20260905131130 73 248 7.0 14.0 0.00 0.13 0.13 59 1021.5
20260905131029 73 278 7.0 14.0 0.00 0.13 0.13 59 1021.3
20260905130928 73 259 7.0 14.0 0.00 0.13 0.13 59 1021.5
20260905130829 73 286 7.0 14.0 0.00 0.13 0.13 61 1021.5
20260905130728 73 262 7.0 14.0 0.00 0.13 0.13 61 1021.5
20260905130701 73 266 7.0 14.0 0.00 0.13 0.13 61 1021.5
20260905130622 73 274 7.0 14.0 0.00 0.13 0.13 60 1021.3
20260905130522 73 260 7.0 14.0 0.00 0.13 0.13 60 1021.3
20260905130422 73 246 7.0 14.0 0.00 0.13 0.13 61 1021.2
20260905130322 73 252 7.0 14.0 0.00 0.13 0.13 59 1021.5
20260905130221 73 262 6.0 14.0 0.00 0.13 0.13 60 1021.5
20260905130201 73 252 6.0 14.0 0.00 0.13 0.13 60 1021.5
20260905130118 73 266 6.0 14.0 0.00 0.13 0.13 61 1021.3
20260905130019 73 262 5.0 14.0 0.00 0.13 0.13 60 1021.2
20260905125917 73 296 5.0 11.0 0.00 0.13 0.13 60 1021.3
20260905125817 73 249 5.0 11.0 0.00 0.13 0.13 60 1021.3
20260905125716 73 244 5.0 10.0 0.00 0.13 0.13 61 1021.3
20260905125701 73 256 5.0 10.0 0.00 0.13 0.13 61 1021.3
20260905125610 73 237 5.0 9.0 0.00 0.13 0.13 61 1021.3
20260905125511 72 236 5.0 9.0 0.00 0.13 0.13 64 1021.5
20260905125410 72 244 5.0 9.0 0.00 0.13 0.13 65 1021.3
20260905125310 72 246 5.0 9.0 0.00 0.13 0.13 64 1021.3
20260905125201 72 257 5.0 9.0 0.00 0.13 0.13 67 1021.3
20260905125104 72 305 5.0 10.0 0.00 0.13 0.13 67 1021.3
20260905125004 72 273 6.0 10.0 0.00 0.13 0.13 67 1021.3
20260905124904 72 319 6.0 10.0 0.00 0.13 0.13 67 1021.3
20260905124805 72 267 6.0 10.0 0.00 0.13 0.13 67 1021.3
20260905124705 72 263 6.0 10.0 0.00 0.13 0.13 67 1021.3
20260905124700 72 274 6.0 10.0 0.00 0.13 0.13 67 1021.3
20260905124604 71 289 6.0 10.0 0.00 0.13 0.13 68 1021.5
20260905124501 71 235 7.0 12.0 0.00 0.13 0.13 68 1021.3
20260905124402 71 200 7.0 12.0 0.00 0.13 0.13 69 1021.5
20260905124301 71 223 7.0 12.0 0.00 0.13 0.13 68 1021.5
20260905124201 71 263 7.0 12.0 0.00 0.13 0.13 67 1021.6
20260905124152 71 243 7.0 12.0 0.00 0.13 0.13 67 1021.6
20260905124146 71 275 7.0 12.0 0.00 0.13 0.13 68 1021.5
20260905124142 71 227 7.0 12.0 0.00 0.13 0.13 69 1021.6
20260905123921 71 279 7.0 12.0 0.00 0.13 0.13 68 1021.6
20260905123917 71 277 7.0 12.0 0.00 0.13 0.13 68 1021.6
20260905123913 71 243 7.0 12.0 0.00 0.13 0.13 67 1021.6
20260905123601 71 219 6.0 12.0 0.00 0.13 0.13 69 1021.6
20260905123501 71 213 6.0 11.0 0.00 0.13 0.13 68 1021.5
20260905123401 71 277 6.0 11.0 0.00 0.13 0.13 69 1021.6
20260905123301 71 266 5.0 11.0 0.00 0.13 0.13 69 1021.6
20260905123200 70 256 5.0 9.0 0.00 0.13 0.13 69 1021.5
20260905123101 70 265 5.0 9.0 0.00 0.13 0.13 70 1021.6
20260905123001 70 235 5.0 10.0 0.00 0.13 0.13 70 1021.6
20260905122900 70 278 5.0 10.0 0.00 0.13 0.13 71 1021.5
20260905122801 70 267 5.0 10.0 0.00 0.13 0.13 72 1021.6
20260905122701 70 237 5.0 11.0 0.00 0.13 0.13 72 1021.6
20260905122601 70 286 5.0 11.0 0.00 0.13 0.13 73 1021.6
20260905122501 70 227 6.0 11.0 0.00 0.13 0.13 72 1021.6
20260905122401 70 221 6.0 12.0 0.00 0.13 0.13 74 1021.6
20260905122301 69 271 6.0 12.0 0.00 0.13 0.13 74 1021.5
20260905122201 69 254 6.0 12.0 0.00 0.13 0.13 74 1021.5
20260905122101 69 267 6.0 12.0 0.00 0.13 0.13 72 1021.5
20260905122001 69 271 6.0 12.0 0.00 0.13 0.13 71 1021.5
20260905121901 69 258 6.0 12.0 0.00 0.13 0.13 72 1021.6
20260905121802 69 279 6.0 12.0 0.00 0.13 0.13 73 1021.6
20260905121700 69 256 6.0 12.0 0.00 0.13 0.13 73 1021.5
20260905121600 69 259 6.0 12.0 0.00 0.13 0.13 73 1021.6
20260905121501 69 233 6.0 12.0 0.00 0.13 0.13 73 1021.5
20260905121401 69 271 5.0 11.0 0.00 0.13 0.13 74 1021.5
20260905121301 69 266 5.0 11.0 0.00 0.13 0.13 76 1021.5
20260905121201 69 247 5.0 11.0 0.00 0.13 0.13 75 1021.6
20260905121101 68 225 5.0 11.0 0.00 0.13 0.13 76 1021.5
20260905121001 68 291 4.0 11.0 0.00 0.13 0.13 76 1021.5
20260905120901 68 251 4.0 9.0 0.00 0.13 0.13 76 1021.6
20260905120801 68 263 4.0 9.0 0.00 0.13 0.13 77 1021.6
20260905120701 68 229 4.0 9.0 0.00 0.13 0.13 77 1021.6
20260905120601 68 263 4.0 9.0 0.00 0.13 0.13 77 1021.6
20260905120501 68 273 4.0 9.0 0.00 0.13 0.13 78 1021.6
20260905120401 68 284 4.0 9.0 0.00 0.13 0.13 79 1021.6
20260905120302 68 216 4.0 9.0 0.00 0.13 0.13 77 1021.6
20260905120200 68 254 4.0 9.0 0.00 0.13 0.13 78 1021.6
20260905120001 67 222 4.0 9.0 0.00 0.13 0.13 78 1021.6
20260905115901 67 225 4.0 9.0 0.00 0.13 0.13 77 1021.6
20260905115801 67 219 4.0 9.0 0.00 0.13 0.13 77 1021.6
20260905115701 67 217 5.0 10.0 0.00 0.13 0.13 77 1021.6
20260905115601 67 282 5.0 11.0 0.00 0.13 0.13 78 1021.6
20260905115500 67 300 5.0 11.0 0.00 0.13 0.13 78 1021.6
20260905115401 67 255 5.0 11.0 0.00 0.13 0.13 79 1021.7
20260905115300 67 244 5.0 11.0 0.00 0.13 0.13 78 1021.6
20260905115200 67 285 5.0 11.0 0.00 0.13 0.13 78 1021.7
20260905115100 67 257 5.0 11.0 0.00 0.13 0.13 77 1021.7
20260905115001 67 262 6.0 11.0 0.00 0.13 0.13 77 1021.7
20260905114920 67 265 6.0 11.0 0.00 0.13 0.13 78 1021.7
20260905114916 67 277 6.0 11.0 0.00 0.13 0.13 81 1021.7
20260905114912 67 248 5.0 11.0 0.00 0.13 0.13 80 1021.7
20260905114601 67 265 5.0 11.0 0.00 0.13 0.13 80 1021.6
20260905114503 66 203 5.0 11.0 0.00 0.13 0.13 81 1021.7
20260905114401 66 240 5.0 11.0 0.00 0.13 0.13 81 1021.7
20260905114301 66 228 5.0 11.0 0.00 0.13 0.13 82 1021.7
20260905114201 66 202 5.0 11.0 0.00 0.13 0.13 81 1021.7
20260905114101 66 233 5.0 11.0 0.00 0.13 0.13 82 1021.8
20260905114001 66 240 5.0 11.0 0.00 0.13 0.13 82 1021.8
20260905113905 66 213 5.0 9.0 0.00 0.13 0.13 84 1021.8
20260905113802 66 222 4.0 9.0 0.00 0.13 0.13 84 1021.8
20260905113701 65 212 4.0 9.0 0.00 0.13 0.13 83 1021.8
20260905113601 65 252 4.0 9.0 0.00 0.13 0.13 83 1021.8
20260905113501 65 246 4.0 8.0 0.00 0.13 0.13 84 1021.7
20260905113401 65 279 4.0 8.0 0.00 0.13 0.13 85 1021.8
20260905113301 65 218 4.0 8.0 0.00 0.13 0.13 84 1021.7
20260905113200 65 202 4.0 8.0 0.00 0.13 0.13 85 1021.8
20260905113100 65 266 4.0 8.0 0.00 0.13 0.13 85 1021.8
20260905113000 65 297 4.0 8.0 0.00 0.13 0.13 85 1021.8
20260905112901 65 242 4.0 8.0 0.00 0.13 0.13 85 1021.7
20260905112800 65 244 4.0 8.0 0.00 0.13 0.13 86 1021.7
20260905112700 65 248 4.0 8.0 0.00 0.13 0.13 85 1021.7
20260905112601 64 229 4.0 8.0 0.00 0.13 0.13 85 1021.7
20260905112501 64 258 4.0 8.0 0.00 0.13 0.13 86 1021.7
20260905112401 64 247 4.0 8.0 0.00 0.13 0.13 87 1021.8
20260905112300 64 241 4.0 9.0 0.00 0.13 0.13 85 1021.7
20260905112201 64 228 4.0 9.0 0.00 0.13 0.13 85 1021.8
20260905112056 64 281 5.0 9.0 0.00 0.13 0.13 85 1021.7
20260905111956 64 300 5.0 11.0 0.00 0.13 0.13 86 1021.7
20260905111856 64 300 6.0 11.0 0.00 0.13 0.13 86 1021.7
20260905111756 64 298 6.0 11.0 0.00 0.13 0.13 86 1021.8
20260905111654 64 284 6.0 11.0 0.00 0.13 0.13 86 1021.7
20260905111548 64 275 6.0 11.0 0.01 0.13 0.13 86 1021.8
20260905111447 64 234 6.0 11.0 0.01 0.13 0.13 85 1021.7
20260905111418 64 246 7.0 11.0 0.01 0.13 0.13 85 1021.8
20260905111413 64 261 6.0 11.0 0.01 0.13 0.13 85 1021.7
20260905111403 64 233 7.0 11.0 0.01 0.13 0.13 85 1021.8
20260905111148 64 260 7.0 11.0 0.01 0.13 0.13 85 1021.8
20260905111044 64 247 6.0 11.0 0.01 0.13 0.13 85 1021.8
20260905110943 64 254 6.0 11.0 0.01 0.13 0.13 87 1021.7
20260905110846 63 275 6.0 11.0 0.01 0.13 0.13 86 1021.8
20260905110744 63 273 6.0 11.0 0.01 0.13 0.13 86 1021.7
20260905110641 63 265 6.0 11.0 0.01 0.13 0.13 87 1021.7
20260905110538 63 230 6.0 11.0 0.01 0.13 0.13 88 1021.8
20260905110436 63 286 6.0 11.0 0.01 0.13 0.13 87 1021.7
20260905110418 63 234 4.0 9.0 0.01 0.13 0.13 87 1021.7
20260905110407 63 312 5.0 11.0 0.01 0.13 0.13 88 1021.7
20260905110403 63 236 5.0 11.0 0.01 0.13 0.13 88 1021.8
20260905110136 63 198 4.0 9.0 0.01 0.13 0.13 87 1021.7
20260905110030 63 223 4.0 9.0 0.01 0.13 0.13 88 1021.7
20260905105929 62 210 4.0 9.0 0.01 0.13 0.13 90 1021.6
20260905105830 62 230 4.0 8.0 0.01 0.13 0.13 89 1021.7
20260905105730 62 269 3.0 7.0 0.01 0.13 0.13 89 1021.6
20260905105652 62 284 3.0 7.0 0.01 0.13 0.13 89 1021.6
20260905105629 62 267 3.0 7.0 0.01 0.13 0.13 89 1021.6
20260905105530 62 287 3.0 7.0 0.01 0.13 0.13 88 1021.6
20260905105430 62 278 3.0 7.0 0.01 0.13 0.13 88 1021.6
20260905105330 62 225 3.0 7.0 0.01 0.13 0.13 88 1021.6
20260905105230 62 242 3.0 7.0 0.01 0.13 0.13 88 1021.6
20260905105152 62 224 3.0 7.0 0.01 0.13 0.13 88 1021.6
20260905105130 62 224 3.0 7.0 0.01 0.13 0.13 89 1021.6
20260905105029 62 223 3.0 7.0 0.01 0.13 0.13 89 1021.6
20260905104930 62 265 2.0 6.0 0.01 0.13 0.13 89 1021.6
20260905104830 62 246 2.0 6.0 0.01 0.13 0.13 89 1021.6
20260905104730 62 227 2.0 6.0 0.01 0.13 0.13 89 1021.6
20260905104629 62 225 2.0 6.0 0.01 0.13 0.13 89 1021.6
20260905104529 62 225 2.0 6.0 0.01 0.13 0.13 88 1021.6
20260905104429 62 198 2.0 6.0 0.02 0.13 0.13 88 1021.6
20260905104329 62 195 2.0 6.0 0.02 0.13 0.13 89 1021.6
20260905104230 62 205 2.0 5.0 0.02 0.13 0.13 89 1021.6
20260905104150 62 223 2.0 5.0 0.02 0.13 0.13 89 1021.6
20260905104129 62 227 2.0 5.0 0.02 0.13 0.13 89 1021.6
20260905104029 62 296 2.0 5.0 0.02 0.13 0.13 89 1021.7
20260905103929 62 296 2.0 5.0 0.02 0.13 0.13 90 1021.7
20260905103915 61 234 2.0 5.0 0.02 0.13 0.13 90 1021.7
20260905103906 62 241 2.0 4.0 0.02 0.13 0.13 90 1021.7
20260905103902 61 241 2.0 5.0 0.02 0.13 0.13 90 1021.7
20260905103628 61 254 2.0 5.0 0.02 0.13 0.13 90 1021.7
20260905103526 61 209 2.0 5.0 0.02 0.13 0.13 90 1021.7
20260905103424 61 208 2.0 5.0 0.02 0.13 0.13 90 1021.6
20260905103415 61 208 2.0 6.0 0.02 0.13 0.13 89 1021.6
20260905103406 61 208 2.0 5.0 0.02 0.13 0.13 90 1021.6
20260905103402 61 208 2.0 6.0 0.02 0.13 0.13 89 1021.6
20260905103120 61 208 2.0 6.0 0.02 0.13 0.13 89 1021.6
20260905103020 61 208 2.0 6.0 0.02 0.13 0.13 90 1021.6
20260905102917 61 208 2.0 6.0 0.02 0.13 0.13 90 1021.5
20260905102913 61 208 2.0 6.0 0.02 0.13 0.13 90 1021.5
20260905102903 61 208 2.0 6.0 0.02 0.13 0.13 90 1021.5
20260905102859 61 208 2.0 6.0 0.02 0.13 0.13 90 1021.5
20260905102612 61 208 3.0 6.0 0.02 0.13 0.13 90 1021.5
20260905102511 61 208 3.0 6.0 0.02 0.13 0.13 90 1021.5
20260905102415 61 213 3.0 7.0 0.02 0.13 0.13 90 1021.3
20260905102411 61 207 3.0 6.0 0.02 0.13 0.13 90 1021.3
20260905102402 61 208 3.0 6.0 0.02 0.13 0.13 89 1021.3
20260905102358 61 213 3.0 7.0 0.02 0.13 0.13 90 1021.3
20260905102108 61 209 3.0 7.0 0.02 0.13 0.13 90 1021.3
20260905102007 61 216 3.0 7.0 0.02 0.13 0.13 90 1021.3
20260905101905 61 216 3.0 7.0 0.02 0.13 0.13 90 1021.3
20260905101801 61 216 4.0 7.0 0.03 0.13 0.13 90 1021.3
20260905101646 61 215 4.0 7.0 0.03 0.13 0.13 90 1021.3
20260905101600 61 214 4.0 7.0 0.03 0.13 0.13 90 1021.3
20260905101500 61 205 4.0 7.0 0.03 0.13 0.13 90 1021.5
20260905101400 60 212 4.0 7.0 0.04 0.13 0.13 90 1021.3
20260905101254 60 254 4.0 7.0 0.04 0.13 0.13 90 1021.3
20260905101146 60 227 4.0 7.0 0.05 0.13 0.13 90 1021.3
20260905101054 60 212 4.0 8.0 0.05 0.13 0.13 90 1021.3
20260905100954 60 211 3.0 8.0 0.05 0.13 0.13 91 1021.3
20260905100854 60 224 3.0 8.0 0.05 0.13 0.13 91 1021.3
20260905100748 60 229 3.0 8.0 0.05 0.13 0.13 91 1021.2
20260905100643 60 211 3.0 8.0 0.05 0.13 0.13 91 1021.2
20260905100547 60 232 3.0 8.0 0.05 0.13 0.13 91 1021.2
20260905100447 60 212 3.0 8.0 0.05 0.13 0.13 91 1021.3
20260905100347 60 223 3.0 8.0 0.05 0.13 0.13 91 1021.3
20260905100246 60 229 3.0 8.0 0.05 0.13 0.13 91 1021.3
20260905100143 60 242 2.0 8.0 0.05 0.13 0.13 91 1021.3
20260905100045 60 259 2.0 6.0 0.05 0.13 0.13 91 1021.3
20260905095946 60 293 2.0 6.0 0.05 0.13 0.13 91 1021.5
20260905095846 60 234 2.0 6.0 0.05 0.13 0.13 92 1021.5
20260905095745 60 234 2.0 6.0 0.05 0.13 0.13 92 1021.3
20260905095644 60 242 2.0 6.0 0.05 0.13 0.13 92 1021.3
20260905095544 60 200 2.0 6.0 0.06 0.13 0.13 92 1021.3
20260905095442 60 185 1.0 5.0 0.06 0.13 0.13 92 1021.3
20260905095342 60 184 1.0 5.0 0.06 0.13 0.13 92 1021.3
20260905095242 60 184 2.0 5.0 0.06 0.13 0.13 92 1021.3
20260905095142 60 184 1.0 5.0 0.06 0.13 0.13 91 1021.3
20260905095040 60 183 1.0 5.0 0.06 0.13 0.13 91 1021.3
20260905094940 59 127 1.0 5.0 0.06 0.13 0.13 92 1021.3
20260905094840 59 123 1.0 5.0 0.06 0.13 0.13 91 1021.2
20260905094740 59 123 1.0 5.0 0.06 0.13 0.13 91 1021.2
20260905094640 59 123 1.0 5.0 0.06 0.13 0.13 91 1021.2
20260905094540 59 127 1.0 5.0 0.06 0.13 0.12 91 1021.3
20260905094439 59 127 1.0 5.0 0.05 0.12 0.12 91 1021.2
20260905094402 59 127 1.0 5.0 0.05 0.12 0.12 91 1021.2
20260905094354 59 98 1.0 4.0 0.05 0.12 0.12 92 1021.2
20260905094350 59 100 1.0 4.0 0.05 0.12 0.12 91 1021.2
20260905094036 59 100 2.0 4.0 0.05 0.12 0.12 91 1021.3
20260905093934 59 101 2.0 9.0 0.05 0.12 0.12 91 1021.5
20260905093834 59 101 2.0 9.0 0.05 0.12 0.12 91 1021.5
20260905093734 59 101 3.0 9.0 0.05 0.12 0.12 91 1021.3
20260905093634 59 95 3.0 9.0 0.05 0.12 0.12 90 1021.3
20260905093532 59 105 3.0 9.0 0.05 0.12 0.12 90 1021.3
20260905093432 59 104 3.0 9.0 0.05 0.12 0.12 90 1021.2
20260905093350 59 148 3.0 8.0 0.05 0.12 0.12 90 1021.3
20260905093346 59 101 3.0 9.0 0.05 0.12 0.12 91 1021.2
20260905093338 59 90 3.0 9.0 0.05 0.12 0.12 91 1021.1
20260905093329 59 125 3.0 9.0 0.05 0.12 0.12 90 1021.3
20260905093114 59 134 3.0 9.0 0.05 0.12 0.12 90 1021.3
20260905093110 59 110 3.0 9.0 0.05 0.12 0.12 90 1021.3
20260905092854 59 142 3.0 8.0 0.05 0.12 0.12 90 1021.3
20260905092847 59 147 3.0 8.0 0.05 0.12 0.12 90 1021.5
20260905092632 59 148 3.0 8.0 0.05 0.12 0.12 90 1021.3
20260905092532 59 150 3.0 8.0 0.05 0.12 0.12 90 1021.5
20260905092432 59 127 3.0 8.0 0.05 0.12 0.12 90 1021.5
20260905092330 59 116 3.0 8.0 0.05 0.12 0.11 90 1021.5
20260905092230 59 144 3.0 7.0 0.04 0.11 0.11 90 1021.3
20260905092130 59 109 3.0 7.0 0.04 0.11 0.11 90 1021.3
20260905092030 59 167 3.0 7.0 0.05 0.11 0.11 90 1021.3
20260905091929 59 167 3.0 7.0 0.05 0.11 0.10 90 1021.3
20260905091900 59 128 4.0 7.0 0.05 0.09 0.09 89 1021.6
20260905091855 59 124 3.0 7.0 0.04 0.10 0.10 90 1021.3
20260905091847 59 132 3.0 7.0 0.05 0.10 0.09 89 1021.5
20260905091630 59 128 4.0 7.0 0.05 0.09 0.09 89 1021.6
20260905091530 59 128 4.0 7.0 0.06 0.09 0.09 89 1021.3
20260905091430 59 104 4.0 7.0 0.06 0.09 0.09 89 1021.3
20260905091401 59 169 3.0 7.0 0.06 0.08 0.08 89 1021.5
20260905091329 59 132 4.0 7.0 0.06 0.09 0.09 89 1021.5
20260905091229 59 168 4.0 7.0 0.06 0.09 0.08 89 1021.6
20260905091201 59 151 3.0 7.0 0.06 0.08 0.08 89 1021.5
20260905091029 59 146 3.0 7.0 0.06 0.08 0.08 89 1021.5
20260905090929 59 142 3.0 7.0 0.07 0.08 0.08 89 1021.3
20260905090830 59 116 3.0 7.0 0.07 0.08 0.08 89 1021.3
20260905090729 59 159 3.0 7.0 0.07 0.08 0.08 89 1021.3
20260905090634 59 144 3.0 7.0 0.07 0.08 0.08 89 1021.3
20260905090629 59 140 3.0 7.0 0.07 0.08 0.08 89 1021.3
20260905090529 59 136 3.0 7.0 0.07 0.08 0.08 89 1021.2
20260905090429 59 156 2.0 6.0 0.07 0.08 0.08 89 1021.2
20260905090329 59 132 2.0 6.0 0.07 0.08 0.08 89 1021.2
20260905090229 59 172 2.0 6.0 0.07 0.08 0.08 88 1021.2
20260905090124 59 153 2.0 6.0 0.07 0.08 0.08 88 1021.2
20260905090024 59 155 2.0 6.0 0.07 0.08 0.08 89 1021.1
20260905085924 59 128 2.0 6.0 0.07 0.08 0.08 89 1021.0
20260905085824 59 126 2.0 5.0 0.07 0.08 0.08 89 1021.0
20260905085723 59 123 2.0 5.0 0.07 0.08 0.08 89 1021.1
20260905085624 59 135 2.0 8.0 0.07 0.08 0.07 89 1021.1
20260905085521 59 126 2.0 9.0 0.06 0.07 0.07 89 1021.1
20260905085423 59 126 2.0 9.0 0.06 0.07 0.07 89 1021.1
20260905085322 59 126 3.0 9.0 0.06 0.07 0.07 89 1021.1
20260905085221 59 126 3.0 9.0 0.06 0.07 0.07 89 1021.1
20260905085131 59 127 3.0 9.0 0.06 0.07 0.07 89 1021.1
20260905085121 59 127 4.0 9.0 0.06 0.07 0.07 89 1021.0
20260905085113 58 133 5.0 10.0 0.06 0.07 0.07 90 1020.9
20260905085108 59 127 4.0 9.0 0.06 0.07 0.07 89 1021.0
20260905085104 58 127 4.0 9.0 0.06 0.07 0.07 89 1020.9
20260905084848 59 117 4.0 9.0 0.06 0.07 0.07 89 1020.9
20260905084840 58 143 4.0 10.0 0.06 0.07 0.07 90 1020.9
20260905084621 58 140 5.0 10.0 0.06 0.07 0.07 90 1020.9
20260905084522 58 146 5.0 10.0 0.06 0.07 0.07 89 1020.9
20260905084418 58 134 5.0 10.0 0.06 0.07 0.07 90 1020.9
20260905084357 58 125 5.0 10.0 0.06 0.07 0.07 89 1020.8
20260905084349 58 144 5.0 10.0 0.06 0.07 0.07 89 1020.9
20260905084341 58 174 5.0 10.0 0.06 0.07 0.07 89 1020.8
20260905084118 58 134 5.0 10.0 0.06 0.07 0.07 89 1020.8
20260905084018 58 143 5.0 10.0 0.06 0.07 0.07 89 1020.8
20260905083917 58 118 5.0 10.0 0.06 0.07 0.07 89 1020.7
20260905083817 58 132 5.0 10.0 0.06 0.07 0.07 89 1020.7
20260905083718 58 150 5.0 10.0 0.06 0.07 0.07 89 1020.8
20260905083629 58 140 5.0 10.0 0.06 0.07 0.07 89 1020.8
20260905083618 58 157 5.0 10.0 0.06 0.07 0.07 89 1020.8
20260905083518 58 125 4.0 10.0 0.06 0.07 0.07 89 1020.7
20260905083418 58 101 4.0 10.0 0.06 0.07 0.07 88 1020.7
20260905083359 59 144 4.0 9.0 0.06 0.07 0.07 88 1020.8
20260905083349 58 87 4.0 10.0 0.06 0.07 0.07 88 1020.8
20260905083345 58 107 4.0 10.0 0.06 0.07 0.07 88 1020.8
20260905083117 59 117 4.0 9.0 0.06 0.07 0.07 88 1020.8
20260905083017 59 117 4.0 8.0 0.06 0.07 0.07 88 1020.8
20260905082918 59 112 3.0 8.0 0.06 0.07 0.07 88 1020.8
20260905082818 59 123 3.0 8.0 0.06 0.07 0.07 88 1020.9
20260905082718 59 123 3.0 9.0 0.06 0.07 0.07 87 1021.0
20260905082629 59 133 3.0 9.0 0.06 0.07 0.07 87 1021.0
20260905082618 59 98 3.0 9.0 0.06 0.07 0.07 87 1021.0
20260905082515 59 96 3.0 9.0 0.06 0.07 0.07 87 1021.0
20260905082414 59 137 2.0 9.0 0.06 0.07 0.07 86 1021.1